| time (UTC) | temp F | wind direction | speed knots | gust knots | rain 1hr in | rain 24hr in | rain mn in | humidity % | barometer mb |
| 20260504042110 | 49 | 259 | 0.9 | 2.6 | 0.00 | 0.01 | 0.01 | 78 | 991.9 |
| 20260504041913 | 49 | 259 | 0.9 | 2.6 | 0.00 | 0.01 | 0.01 | 78 | 991.9 |
| 20260504041905 | 49 | 259 | 0.9 | 2.6 | 0.00 | 0.01 | 0.01 | 78 | 991.9 |
| 20260504041647 | 49 | 259 | 0.9 | 2.6 | 0.00 | 0.01 | 0.01 | 78 | 992.0 |
| 20260504041542 | 49 | 259 | 0.9 | 2.6 | 0.00 | 0.01 | 0.01 | 78 | 992.0 |
| 20260504041444 | 49 | 259 | 1.7 | 2.6 | 0.00 | 0.01 | 0.01 | 78 | 991.9 |
| 20260504041343 | 49 | 259 | 1.7 | 2.6 | 0.00 | 0.01 | 0.01 | 78 | 991.9 |
| 20260504041243 | 49 | 259 | 0.9 | 2.6 | 0.00 | 0.01 | 0.01 | 78 | 992.0 |
| 20260504041142 | 49 | 259 | 0.9 | 2.6 | 0.00 | 0.01 | 0.01 | 78 | 992.0 |
| 20260504041108 | 49 | 259 | 0.9 | 2.6 | 0.00 | 0.01 | 0.01 | 77 | 992.1 |
| 20260504041059 | 49 | 259 | 0.9 | 2.6 | 0.00 | 0.01 | 0.01 | 78 | 992.0 |
| 20260504040837 | 49 | 259 | 0.9 | 2.6 | 0.00 | 0.01 | 0.01 | 77 | 992.1 |
| 20260504040735 | 49 | 259 | 0.9 | 2.6 | 0.00 | 0.01 | 0.01 | 77 | 992.1 |
| 20260504040634 | 49 | 259 | 0.9 | 2.6 | 0.00 | 0.01 | 0.01 | 77 | 992.2 |
| 20260504040535 | 49 | 259 | 0.0 | 2.6 | 0.00 | 0.01 | 0.01 | 77 | 992.1 |
| 20260504040433 | 49 | 259 | 0.0 | 2.6 | 0.00 | 0.01 | 0.01 | 77 | 992.1 |
| 20260504040331 | 49 | 259 | 0.0 | 0.9 | 0.00 | 0.01 | 0.01 | 77 | 992.1 |
| 20260504040222 | 49 | 259 | 0.0 | 1.7 | 0.00 | 0.01 | 0.01 | 77 | 992.1 |
| 20260504040121 | 49 | 259 | 0.0 | 1.7 | 0.00 | 0.01 | 0.01 | 77 | 992.1 |
| 20260504040050 | 49 | 259 | 0.0 | 1.7 | 0.00 | 0.01 | 0.01 | 77 | 992.1 |
| 20260504040040 | 49 | 259 | 0.0 | 1.7 | 0.00 | 0.01 | 0.01 | 77 | 992.1 |
| 20260504035821 | 49 | 259 | 0.0 | 1.7 | 0.00 | 0.01 | 0.01 | 77 | 992.1 |
| 20260504035722 | 49 | 259 | 0.0 | 1.7 | 0.00 | 0.01 | 0.01 | 77 | 992.1 |
| 20260504035618 | 49 | 259 | 0.0 | 1.7 | 0.00 | 0.01 | 0.01 | 76 | 992.1 |
| 20260504035519 | 49 | 259 | 0.0 | 1.7 | 0.00 | 0.01 | 0.01 | 76 | 992.1 |
| 20260504035507 | 49 | 259 | 0.0 | 1.7 | 0.00 | 0.01 | 0.01 | 76 | 992.2 |
| 20260504035503 | 49 | 259 | 0.0 | 1.7 | 0.00 | 0.01 | 0.01 | 76 | 992.2 |
| 20260504035447 | 49 | 259 | 0.0 | 1.7 | 0.00 | 0.01 | 0.01 | 76 | 992.3 |
| 20260504035112 | 49 | 259 | 0.0 | 1.7 | 0.00 | 0.01 | 0.01 | 76 | 992.1 |
| 20260504035011 | 49 | 259 | 0.0 | 1.7 | 0.00 | 0.01 | 0.01 | 76 | 992.1 |
| 20260504034912 | 49 | 259 | 0.0 | 1.7 | 0.00 | 0.01 | 0.01 | 76 | 992.1 |
| 20260504034810 | 49 | 259 | 0.0 | 1.7 | 0.00 | 0.01 | 0.01 | 76 | 992.1 |
| 20260504034704 | 50 | 259 | 0.0 | 1.7 | 0.00 | 0.01 | 0.01 | 76 | 992.2 |
| 20260504034605 | 50 | 259 | 0.0 | 1.7 | 0.00 | 0.01 | 0.01 | 76 | 992.2 |
| 20260504034505 | 50 | 259 | 0.0 | 1.7 | 0.00 | 0.01 | 0.01 | 76 | 992.2 |
| 20260504034401 | 50 | 259 | 0.0 | 1.7 | 0.00 | 0.01 | 0.01 | 76 | 992.2 |
| 20260504034259 | 50 | 259 | 0.0 | 1.7 | 0.00 | 0.01 | 0.01 | 76 | 992.1 |
| 20260504034200 | 50 | 259 | 0.0 | 1.7 | 0.00 | 0.01 | 0.01 | 76 | 992.2 |
| 20260504034058 | 50 | 259 | 0.0 | 1.7 | 0.00 | 0.01 | 0.01 | 76 | 992.3 |
| 20260504033956 | 50 | 259 | 0.0 | 1.7 | 0.00 | 0.01 | 0.01 | 76 | 992.2 |
| 20260504033855 | 50 | 259 | 0.0 | 1.7 | 0.00 | 0.01 | 0.01 | 76 | 992.2 |
| 20260504033821 | 50 | 259 | 0.9 | 1.7 | 0.00 | 0.01 | 0.01 | 75 | 992.2 |
| 20260504033812 | 50 | 259 | 0.0 | 1.7 | 0.00 | 0.01 | 0.01 | 75 | 992.1 |
| 20260504033553 | 50 | 259 | 0.9 | 1.7 | 0.00 | 0.01 | 0.01 | 75 | 992.3 |
| 20260504033452 | 50 | 259 | 0.9 | 1.7 | 0.00 | 0.01 | 0.01 | 75 | 992.3 |
| 20260504033353 | 50 | 259 | 0.9 | 1.7 | 0.00 | 0.01 | 0.01 | 76 | 992.2 |
| 20260504033320 | 50 | 259 | 0.9 | 2.6 | 0.00 | 0.01 | 0.01 | 76 | 992.3 |
| 20260504033310 | 50 | 259 | 0.9 | 1.7 | 0.00 | 0.01 | 0.01 | 76 | 992.3 |
| 20260504033050 | 50 | 259 | 0.9 | 2.6 | 0.00 | 0.01 | 0.01 | 76 | 992.3 |
| 20260504032947 | 50 | 259 | 0.9 | 2.6 | 0.00 | 0.01 | 0.01 | 75 | 992.3 |
| 20260504032915 | 50 | 259 | 0.9 | 2.6 | 0.00 | 0.01 | 0.01 | 75 | 992.2 |
| 20260504032907 | 50 | 259 | 0.9 | 2.6 | 0.00 | 0.01 | 0.01 | 75 | 992.3 |
| 20260504032646 | 50 | 259 | 0.9 | 2.6 | 0.00 | 0.01 | 0.01 | 75 | 992.3 |
| 20260504032543 | 50 | 259 | 0.9 | 2.6 | 0.00 | 0.01 | 0.01 | 75 | 992.3 |
| 20260504032440 | 50 | 259 | 0.9 | 2.6 | 0.00 | 0.01 | 0.01 | 74 | 992.3 |
| 20260504032343 | 50 | 259 | 0.9 | 2.6 | 0.00 | 0.01 | 0.01 | 74 | 992.3 |
| 20260504032240 | 51 | 259 | 0.9 | 2.6 | 0.00 | 0.01 | 0.01 | 74 | 992.3 |
| 20260504032138 | 51 | 259 | 0.9 | 1.7 | 0.00 | 0.01 | 0.01 | 74 | 992.3 |
| 20260504032130 | 51 | 259 | 0.9 | 1.7 | 0.00 | 0.01 | 0.01 | 73 | 992.3 |
| 20260504032126 | 51 | 259 | 0.9 | 2.6 | 0.00 | 0.01 | 0.01 | 73 | 992.4 |
| 20260504032110 | 51 | 259 | 0.9 | 1.7 | 0.00 | 0.01 | 0.01 | 73 | 992.2 |
| 20260504031734 | 51 | 259 | 0.0 | 2.6 | 0.00 | 0.01 | 0.01 | 73 | 992.4 |
| 20260504031636 | 51 | 259 | 0.0 | 2.6 | 0.00 | 0.01 | 0.01 | 73 | 992.4 |
| 20260504031536 | 51 | 259 | 0.0 | 2.6 | 0.00 | 0.01 | 0.01 | 73 | 992.3 |
| 20260504031435 | 51 | 259 | 0.0 | 2.6 | 0.00 | 0.01 | 0.01 | 73 | 992.4 |
| 20260504031333 | 51 | 259 | 0.0 | 2.6 | 0.00 | 0.01 | 0.01 | 73 | 992.3 |
| 20260504031232 | 51 | 259 | 0.0 | 2.6 | 0.00 | 0.01 | 0.01 | 73 | 992.3 |
| 20260504031130 | 51 | 259 | 0.0 | 2.6 | 0.00 | 0.01 | 0.01 | 73 | 992.4 |
| 20260504031113 | 51 | 259 | 0.0 | 0.0 | 0.00 | 0.01 | 0.01 | 72 | 992.4 |
| 20260504031058 | 51 | 259 | 0.0 | 2.6 | 0.00 | 0.01 | 0.01 | 73 | 992.3 |
| 20260504030723 | 51 | 259 | 0.0 | 0.0 | 0.00 | 0.01 | 0.01 | 72 | 992.3 |
| 20260504030624 | 51 | 259 | 0.0 | 0.0 | 0.00 | 0.01 | 0.01 | 72 | 992.3 |
| 20260504030523 | 52 | 259 | 0.0 | 0.0 | 0.00 | 0.01 | 0.01 | 72 | 992.3 |
| 20260504030424 | 52 | 259 | 0.0 | 0.0 | 0.00 | 0.01 | 0.01 | 71 | 992.4 |
| 20260504030322 | 52 | 259 | 0.0 | 0.0 | 0.00 | 0.01 | 0.01 | 71 | 992.4 |
| 20260504030223 | 52 | 259 | 0.0 | 0.0 | 0.00 | 0.01 | 0.01 | 71 | 992.4 |
| 20260504030151 | 52 | 259 | 0.0 | 0.0 | 0.00 | 0.01 | 0.01 | 70 | 992.5 |
| 20260504030141 | 52 | 259 | 0.0 | 0.0 | 0.00 | 0.01 | 0.01 | 70 | 992.5 |
| 20260504025920 | 52 | 259 | 0.0 | 0.0 | 0.00 | 0.01 | 0.01 | 70 | 992.5 |
| 20260504025825 | 52 | 259 | 0.0 | 0.0 | 0.00 | 0.01 | 0.01 | 70 | 992.6 |
| 20260504025818 | 52 | 259 | 0.0 | 0.0 | 0.00 | 0.01 | 0.01 | 70 | 992.3 |
| 20260504025759 | 52 | 259 | 0.0 | 0.0 | 0.00 | 0.01 | 0.01 | 71 | 992.4 |
| 20260504025640 | 52 | 259 | 0.0 | 0.0 | 0.00 | 0.01 | 0.01 | 71 | 992.4 |
| 20260504025421 | 52 | 259 | 0.0 | 0.0 | 0.00 | 0.01 | 0.01 | 70 | 992.4 |
| 20260504025320 | 52 | 259 | 0.0 | 0.0 | 0.00 | 0.01 | 0.01 | 70 | 992.3 |
| 20260504025218 | 52 | 259 | 0.0 | 0.0 | 0.00 | 0.01 | 0.01 | 70 | 992.4 |
| 20260504025114 | 52 | 259 | 0.0 | 0.0 | 0.00 | 0.01 | 0.01 | 70 | 992.5 |
| 20260504025016 | 53 | 259 | 0.0 | 0.0 | 0.00 | 0.01 | 0.01 | 70 | 992.4 |
| 20260504024913 | 53 | 259 | 0.0 | 0.0 | 0.00 | 0.01 | 0.01 | 70 | 992.4 |
| 20260504024812 | 53 | 259 | 0.0 | 0.0 | 0.00 | 0.01 | 0.01 | 70 | 992.4 |
| 20260504024710 | 53 | 259 | 0.0 | 0.0 | 0.00 | 0.01 | 0.01 | 70 | 992.4 |
| 20260504024609 | 53 | 259 | 0.0 | 0.0 | 0.00 | 0.01 | 0.01 | 70 | 992.3 |
| 20260504024536 | 53 | 259 | 0.0 | 0.0 | 0.00 | 0.01 | 0.01 | 70 | 992.4 |
| 20260504024526 | 53 | 259 | 0.0 | 0.0 | 0.00 | 0.01 | 0.01 | 70 | 992.4 |
| 20260504024356 | 53 | 259 | 0.0 | 0.0 | 0.00 | 0.01 | 0.01 | 70 | 992.3 |
| 20260504024340 | 53 | 259 | 0.0 | 0.0 | 0.00 | 0.01 | 0.01 | 70 | 992.4 |
| 20260504024221 | 53 | 259 | 0.0 | 0.0 | 0.00 | 0.01 | 0.01 | 70 | 992.4 |
| 20260504024004 | 53 | 259 | 0.0 | 0.0 | 0.00 | 0.01 | 0.01 | 70 | 992.3 |
| 20260504023930 | 53 | 259 | 0.0 | 0.0 | 0.00 | 0.01 | 0.01 | 70 | 992.2 |
| 20260504023920 | 53 | 259 | 0.0 | 0.0 | 0.00 | 0.01 | 0.01 | 70 | 992.2 |
| 20260504023719 | 53 | 259 | 0.0 | 1.7 | 0.00 | 0.01 | 0.01 | 68 | 992.3 |
| 20260504023714 | 53 | 259 | 0.9 | 1.7 | 0.00 | 0.01 | 0.01 | 68 | 992.1 |
| 20260504023706 | 53 | 259 | 0.0 | 0.0 | 0.00 | 0.01 | 0.01 | 69 | 992.2 |
| 20260504023649 | 53 | 259 | 0.0 | 1.7 | 0.00 | 0.01 | 0.01 | 69 | 992.3 |
| 20260504023535 | 53 | 259 | 0.0 | 1.7 | 0.00 | 0.01 | 0.01 | 67 | 992.1 |
| 20260504023521 | 53 | 259 | 0.0 | 1.7 | 0.00 | 0.01 | 0.01 | 68 | 992.3 |
| 20260504023506 | 53 | 259 | 0.0 | 1.7 | 0.00 | 0.01 | 0.01 | 68 | 992.2 |
| 20260504023222 | 53 | 259 | 0.0 | 1.7 | 0.00 | 0.01 | 0.01 | 68 | 992.2 |
| 20260504022846 | 53 | 259 | 0.9 | 1.7 | 0.00 | 0.01 | 0.01 | 68 | 992.1 |
| 20260504022744 | 53 | 259 | 0.9 | 1.7 | 0.00 | 0.01 | 0.01 | 68 | 992.1 |
| 20260504022737 | 53 | 259 | 0.9 | 1.7 | 0.00 | 0.01 | 0.01 | 67 | 992.0 |
| 20260504022722 | 53 | 259 | 0.9 | 1.7 | 0.00 | 0.01 | 0.01 | 68 | 992.1 |
| 20260504022602 | 53 | 259 | 0.9 | 1.7 | 0.00 | 0.01 | 0.01 | 67 | 992.1 |
| 20260504022339 | 53 | 259 | 0.9 | 1.7 | 0.00 | 0.01 | 0.01 | 67 | 992.0 |
| 20260504022237 | 53 | 259 | 0.9 | 1.7 | 0.00 | 0.01 | 0.01 | 68 | 992.0 |
| 20260504022134 | 53 | 259 | 0.9 | 1.7 | 0.00 | 0.01 | 0.01 | 68 | 992.0 |
| 20260504022032 | 53 | 259 | 0.9 | 1.7 | 0.00 | 0.01 | 0.01 | 67 | 992.0 |
| 20260504021933 | 53 | 259 | 0.9 | 1.7 | 0.00 | 0.01 | 0.01 | 67 | 991.9 |
| 20260504021832 | 53 | 259 | 0.9 | 1.7 | 0.00 | 0.01 | 0.01 | 67 | 991.9 |
| 20260504021820 | 53 | 259 | 0.9 | 1.7 | 0.00 | 0.01 | 0.01 | 67 | 991.9 |
| 20260504021805 | 53 | 259 | 0.9 | 1.7 | 0.00 | 0.01 | 0.01 | 67 | 991.9 |
| 20260504021645 | 53 | 259 | 0.9 | 1.7 | 0.00 | 0.01 | 0.01 | 67 | 991.9 |
| 20260504021436 | 53 | 259 | 0.0 | 0.9 | 0.00 | 0.01 | 0.01 | 66 | 991.8 |
| 20260504021426 | 53 | 259 | 0.9 | 1.7 | 0.00 | 0.01 | 0.01 | 67 | 991.8 |
| 20260504021407 | 53 | 259 | 0.9 | 1.7 | 0.00 | 0.01 | 0.01 | 67 | 991.7 |
| 20260504021251 | 53 | 259 | 0.0 | 1.7 | 0.00 | 0.01 | 0.01 | 66 | 991.7 |
| 20260504021239 | 53 | 259 | 0.0 | 1.7 | 0.00 | 0.01 | 0.01 | 67 | 991.7 |
| 20260504021223 | 53 | 259 | 0.0 | 1.7 | 0.00 | 0.01 | 0.01 | 66 | 991.7 |
| 20260504020943 | 53 | 259 | 0.0 | 1.7 | 0.00 | 0.01 | 0.01 | 66 | 991.8 |
| 20260504020724 | 53 | 259 | 0.0 | 1.7 | 0.00 | 0.01 | 0.01 | 66 | 991.6 |
| 20260504020624 | 53 | 259 | 0.0 | 1.7 | 0.00 | 0.01 | 0.01 | 66 | 991.6 |
| 20260504020522 | 54 | 259 | 0.0 | 1.7 | 0.00 | 0.01 | 0.01 | 65 | 991.5 |
| 20260504020422 | 54 | 259 | 0.0 | 1.7 | 0.00 | 0.01 | 0.01 | 65 | 991.5 |
| 20260504020348 | 54 | 259 | 0.0 | 1.7 | 0.00 | 0.01 | 0.01 | 66 | 991.6 |
| 20260504020339 | 54 | 259 | 0.0 | 1.7 | 0.00 | 0.01 | 0.01 | 66 | 991.6 |
| 20260504020119 | 54 | 259 | 0.0 | 1.7 | 0.00 | 0.01 | 0.01 | 65 | 991.4 |
| 20260504020020 | 54 | 259 | 0.0 | 1.7 | 0.00 | 0.01 | 0.01 | 65 | 991.4 |
| 20260504015913 | 54 | 259 | 0.0 | 1.7 | 0.00 | 0.01 | 0.01 | 65 | 991.5 |
| 20260504015812 | 55 | 259 | 0.0 | 1.7 | 0.00 | 0.01 | 0.01 | 64 | 991.4 |
| 20260504015713 | 55 | 259 | 0.0 | 1.7 | 0.00 | 0.01 | 0.01 | 64 | 991.4 |
| 20260504015615 | 55 | 259 | 0.0 | 1.7 | 0.00 | 0.01 | 0.01 | 64 | 991.4 |
| 20260504015513 | 55 | 259 | 0.0 | 1.7 | 0.00 | 0.01 | 0.01 | 63 | 991.4 |
| 20260504015413 | 55 | 259 | 0.9 | 1.7 | 0.00 | 0.01 | 0.01 | 63 | 991.5 |
| 20260504015339 | 55 | 259 | 0.9 | 2.6 | 0.00 | 0.01 | 0.01 | 63 | 991.4 |
| 20260504015330 | 55 | 259 | 0.9 | 2.6 | 0.00 | 0.01 | 0.01 | 63 | 991.4 |
| 20260504015109 | 55 | 259 | 0.9 | 2.6 | 0.00 | 0.01 | 0.01 | 63 | 991.4 |
| 20260504015040 | 56 | 259 | 0.9 | 2.6 | 0.00 | 0.01 | 0.01 | 63 | 991.4 |
| 20260504015030 | 55 | 259 | 0.9 | 2.6 | 0.00 | 0.01 | 0.01 | 63 | 991.4 |
| 20260504014810 | 56 | 259 | 0.9 | 2.6 | 0.00 | 0.01 | 0.01 | 63 | 991.4 |
| 20260504014708 | 56 | 259 | 0.9 | 2.6 | 0.00 | 0.01 | 0.01 | 63 | 991.5 |
| 20260504014607 | 56 | 259 | 0.9 | 2.6 | 0.00 | 0.01 | 0.01 | 63 | 991.4 |
| 20260504014507 | 56 | 259 | 0.9 | 2.6 | 0.00 | 0.01 | 0.01 | 63 | 991.4 |
| 20260504014405 | 56 | 259 | 0.0 | 2.6 | 0.00 | 0.01 | 0.01 | 62 | 991.4 |
| 20260504014304 | 56 | 259 | 0.0 | 1.7 | 0.00 | 0.01 | 0.01 | 63 | 991.4 |
| 20260504014203 | 56 | 259 | 0.0 | 1.7 | 0.00 | 0.01 | 0.01 | 63 | 991.3 |
| 20260504014101 | 56 | 259 | 0.0 | 0.0 | 0.00 | 0.01 | 0.01 | 63 | 991.3 |
| 20260504014026 | 56 | 259 | 0.0 | 0.0 | 0.00 | 0.01 | 0.01 | 62 | 991.3 |
| 20260504014018 | 56 | 259 | 0.0 | 0.0 | 0.00 | 0.01 | 0.01 | 63 | 991.4 |
| 20260504013757 | 56 | 259 | 0.0 | 0.0 | 0.00 | 0.01 | 0.01 | 62 | 991.3 |
| 20260504013657 | 57 | 259 | 0.0 | 0.0 | 0.00 | 0.01 | 0.01 | 61 | 991.3 |
| 20260504013554 | 57 | 259 | 0.0 | 0.0 | 0.00 | 0.01 | 0.01 | 61 | 991.3 |
| 20260504013456 | 57 | 259 | 0.0 | 0.9 | 0.00 | 0.01 | 0.01 | 60 | 991.3 |
| 20260504013421 | 57 | 259 | 0.0 | 1.7 | 0.00 | 0.01 | 0.01 | 60 | 991.3 |
| 20260504013412 | 57 | 259 | 0.0 | 1.7 | 0.00 | 0.01 | 0.01 | 60 | 991.4 |
| 20260504013216 | 57 | 259 | 0.0 | 1.7 | 0.00 | 0.01 | 0.01 | 60 | 991.3 |
| 20260504013207 | 57 | 259 | 0.0 | 1.7 | 0.00 | 0.01 | 0.01 | 60 | 991.4 |
| 20260504012948 | 57 | 259 | 0.0 | 1.7 | 0.00 | 0.01 | 0.01 | 60 | 991.3 |
| 20260504012848 | 57 | 259 | 0.0 | 1.7 | 0.00 | 0.01 | 0.01 | 60 | 991.3 |
| 20260504012752 | 57 | 259 | 0.0 | 1.7 | 0.00 | 0.01 | 0.01 | 60 | 991.3 |
| 20260504012645 | 57 | 259 | 0.0 | 1.7 | 0.00 | 0.01 | 0.01 | 60 | 991.3 |
| 20260504012609 | 57 | 259 | 0.0 | 1.7 | 0.00 | 0.01 | 0.01 | 61 | 991.3 |
| 20260504012602 | 57 | 259 | 0.0 | 1.7 | 0.00 | 0.01 | 0.01 | 60 | 991.2 |
| 20260504012343 | 58 | 259 | 0.0 | 1.7 | 0.00 | 0.01 | 0.01 | 60 | 991.3 |
| 20260504012243 | 58 | 259 | 0.0 | 0.9 | 0.00 | 0.01 | 0.01 | 60 | 991.3 |
| 20260504012144 | 58 | 259 | 0.0 | 0.9 | 0.00 | 0.01 | 0.01 | 60 | 991.3 |
| 20260504012040 | 58 | 259 | 0.0 | 0.9 | 0.00 | 0.01 | 0.01 | 58 | 991.3 |
| 20260504011940 | 58 | 259 | 0.0 | 0.9 | 0.00 | 0.01 | 0.01 | 57 | 991.4 |
| 20260504011905 | 58 | 259 | 0.0 | 0.9 | 0.00 | 0.01 | 0.01 | 57 | 991.4 |
| 20260504011857 | 58 | 259 | 0.0 | 0.9 | 0.00 | 0.01 | 0.01 | 57 | 991.4 |
| 20260504011637 | 58 | 259 | 0.0 | 0.9 | 0.00 | 0.01 | 0.01 | 58 | 991.4 |
| 20260504011534 | 58 | 259 | 0.0 | 0.9 | 0.00 | 0.01 | 0.01 | 58 | 991.4 |
| 20260504011435 | 58 | 259 | 0.0 | 0.9 | 0.00 | 0.01 | 0.01 | 56 | 991.4 |
| 20260504011332 | 58 | 259 | 0.0 | 0.9 | 0.00 | 0.01 | 0.01 | 56 | 991.4 |
| 20260504011232 | 58 | 259 | 0.0 | 0.0 | 0.00 | 0.01 | 0.01 | 55 | 991.4 |
| 20260504011133 | 58 | 259 | 0.0 | 0.0 | 0.00 | 0.01 | 0.01 | 55 | 991.4 |
| 20260504011058 | 59 | 259 | 0.0 | 0.9 | 0.00 | 0.01 | 0.01 | 54 | 991.4 |
| 20260504011050 | 58 | 259 | 0.0 | 0.9 | 0.00 | 0.01 | 0.01 | 54 | 991.4 |
| 20260504010831 | 59 | 259 | 0.0 | 0.9 | 0.00 | 0.01 | 0.01 | 54 | 991.5 |
| 20260504010730 | 59 | 259 | 0.0 | 1.7 | 0.00 | 0.01 | 0.01 | 54 | 991.4 |
| 20260504010631 | 59 | 259 | 0.0 | 1.7 | 0.00 | 0.01 | 0.01 | 54 | 991.4 |
| 20260504010530 | 59 | 259 | 0.0 | 1.7 | 0.00 | 0.01 | 0.01 | 54 | 991.3 |
| 20260504010430 | 59 | 259 | 0.9 | 1.7 | 0.00 | 0.01 | 0.01 | 54 | 991.3 |
| 20260504010331 | 59 | 259 | 0.9 | 2.6 | 0.00 | 0.01 | 0.01 | 53 | 991.3 |
| 20260504010230 | 59 | 259 | 0.9 | 2.6 | 0.00 | 0.01 | 0.01 | 53 | 991.3 |
| 20260504010131 | 59 | 259 | 0.9 | 2.6 | 0.00 | 0.01 | 0.01 | 54 | 991.3 |
| 20260504010101 | 59 | 259 | 0.9 | 2.6 | 0.00 | 0.01 | 0.01 | 53 | 991.3 |
| 20260504010052 | 59 | 259 | 0.9 | 2.6 | 0.00 | 0.01 | 0.01 | 53 | 991.2 |
| 20260504005859 | 59 | 259 | 0.9 | 2.6 | 0.00 | 0.01 | 0.01 | 54 | 991.2 |
| 20260504005849 | 59 | 259 | 0.9 | 2.6 | 0.00 | 0.01 | 0.01 | 54 | 991.2 |
| 20260504005630 | 60 | 259 | 0.9 | 2.6 | 0.00 | 0.01 | 0.01 | 54 | 991.2 |
| 20260504005531 | 60 | 259 | 0.9 | 2.6 | 0.00 | 0.01 | 0.01 | 54 | 991.2 |
| 20260504005431 | 60 | 259 | 0.9 | 2.6 | 0.00 | 0.01 | 0.01 | 53 | 991.2 |
| 20260504005331 | 60 | 259 | 0.9 | 1.7 | 0.00 | 0.01 | 0.01 | 53 | 991.2 |
| 20260504005301 | 60 | 259 | 0.9 | 2.6 | 0.00 | 0.01 | 0.01 | 51 | 991.2 |
| 20260504005251 | 60 | 259 | 0.9 | 2.6 | 0.00 | 0.01 | 0.01 | 53 | 991.2 |
| 20260504005031 | 60 | 259 | 0.9 | 2.6 | 0.00 | 0.01 | 0.01 | 51 | 991.3 |
| 20260504004931 | 61 | 259 | 0.9 | 2.6 | 0.00 | 0.01 | 0.01 | 51 | 991.2 |
| 20260504004832 | 61 | 259 | 0.9 | 2.6 | 0.00 | 0.01 | 0.01 | 51 | 991.3 |
| 20260504004730 | 61 | 259 | 0.9 | 2.6 | 0.00 | 0.01 | 0.01 | 51 | 991.3 |
| 20260504004631 | 61 | 259 | 0.9 | 2.6 | 0.00 | 0.01 | 0.01 | 51 | 991.3 |
| 20260504004532 | 61 | 259 | 0.9 | 2.6 | 0.00 | 0.01 | 0.01 | 50 | 991.3 |
| 20260504004429 | 61 | 259 | 0.9 | 2.6 | 0.00 | 0.01 | 0.01 | 50 | 991.4 |
| 20260504004326 | 61 | 259 | 0.9 | 2.6 | 0.00 | 0.01 | 0.01 | 50 | 991.3 |
| 20260504004225 | 62 | 259 | 0.9 | 2.6 | 0.00 | 0.01 | 0.01 | 50 | 991.3 |
| 20260504004156 | 62 | 259 | 0.9 | 2.6 | 0.00 | 0.01 | 0.01 | 49 | 991.3 |
| 20260504004146 | 62 | 259 | 0.9 | 2.6 | 0.00 | 0.01 | 0.01 | 50 | 991.3 |
| 20260504003922 | 62 | 259 | 0.9 | 2.6 | 0.00 | 0.01 | 0.01 | 49 | 991.2 |
| 20260504003823 | 62 | 259 | 0.9 | 2.6 | 0.00 | 0.01 | 0.01 | 49 | 991.2 |
| 20260504003722 | 62 | 259 | 0.9 | 2.6 | 0.00 | 0.01 | 0.01 | 48 | 991.2 |
| 20260504003624 | 63 | 259 | 0.9 | 2.6 | 0.00 | 0.01 | 0.01 | 48 | 991.2 |
| 20260504003524 | 63 | 259 | 0.9 | 2.6 | 0.00 | 0.01 | 0.01 | 48 | 991.3 |
| 20260504003424 | 63 | 259 | 0.9 | 2.6 | 0.00 | 0.01 | 0.01 | 49 | 991.3 |
| 20260504003322 | 63 | 259 | 0.9 | 2.6 | 0.00 | 0.01 | 0.01 | 48 | 991.3 |
| 20260504003223 | 63 | 259 | 0.9 | 2.6 | 0.00 | 0.01 | 0.01 | 48 | 991.3 |
| 20260504003123 | 63 | 259 | 0.9 | 2.6 | 0.00 | 0.01 | 0.01 | 49 | 991.2 |
| 20260504003022 | 63 | 259 | 0.9 | 2.6 | 0.00 | 0.01 | 0.01 | 49 | 991.3 |
| 20260504002923 | 64 | 259 | 0.9 | 2.6 | 0.00 | 0.01 | 0.01 | 48 | 991.2 |
| 20260504002823 | 64 | 259 | 0.9 | 2.6 | 0.00 | 0.01 | 0.01 | 49 | 991.2 |
| 20260504002722 | 64 | 259 | 0.9 | 2.6 | 0.00 | 0.01 | 0.01 | 49 | 991.2 |
| 20260504002623 | 64 | 259 | 0.9 | 2.6 | 0.00 | 0.01 | 0.01 | 47 | 991.3 |
| 20260504002523 | 64 | 259 | 0.9 | 2.6 | 0.00 | 0.01 | 0.01 | 46 | 991.3 |
| 20260504002419 | 64 | 259 | 0.0 | 2.6 | 0.00 | 0.01 | 0.01 | 46 | 991.3 |
| 20260504002319 | 64 | 259 | 0.0 | 2.6 | 0.00 | 0.01 | 0.01 | 45 | 991.4 |
| 20260504002248 | 64 | 259 | 0.9 | 2.6 | 0.00 | 0.01 | 0.01 | 45 | 991.4 |
| 20260504002239 | 64 | 259 | 0.0 | 2.6 | 0.00 | 0.01 | 0.01 | 45 | 991.3 |
| 20260504002019 | 64 | 259 | 0.9 | 2.6 | 0.00 | 0.01 | 0.01 | 45 | 991.3 |
| 20260504001919 | 65 | 259 | 0.9 | 2.6 | 0.00 | 0.01 | 0.01 | 45 | 991.4 |
| 20260504001820 | 65 | 259 | 0.9 | 2.6 | 0.00 | 0.01 | 0.01 | 45 | 991.5 |
| 20260504001718 | 65 | 259 | 0.9 | 2.6 | 0.00 | 0.01 | 0.01 | 46 | 991.4 |
| 20260504001619 | 65 | 259 | 1.7 | 3.5 | 0.00 | 0.01 | 0.01 | 47 | 991.5 |
| 20260504001518 | 65 | 259 | 1.7 | 3.5 | 0.00 | 0.01 | 0.01 | 47 | 991.5 |
| 20260504001418 | 65 | 259 | 1.7 | 5.2 | 0.00 | 0.01 | 0.01 | 47 | 991.5 |
| 20260504001318 | 65 | 259 | 1.7 | 5.2 | 0.00 | 0.01 | 0.01 | 48 | 991.4 |
| 20260504001219 | 66 | 259 | 1.7 | 5.2 | 0.00 | 0.01 | 0.01 | 43 | 991.5 |
| 20260504001118 | 66 | 259 | 1.7 | 5.2 | 0.00 | 0.01 | 0.01 | 43 | 991.5 |
| 20260504001018 | 66 | 259 | 1.7 | 5.2 | 0.00 | 0.01 | 0.01 | 42 | 991.6 |
| 20260504000919 | 66 | 259 | 1.7 | 5.2 | 0.00 | 0.01 | 0.01 | 42 | 991.6 |
| 20260504000820 | 66 | 259 | 1.7 | 5.2 | 0.00 | 0.01 | 0.01 | 41 | 991.6 |
| 20260504000719 | 66 | 259 | 1.7 | 5.2 | 0.00 | 0.01 | 0.01 | 41 | 991.6 |
| 20260504000618 | 66 | 259 | 1.7 | 5.2 | 0.00 | 0.01 | 0.01 | 40 | 991.6 |
| 20260504000518 | 66 | 259 | 1.7 | 5.2 | 0.00 | 0.01 | 0.01 | 39 | 991.6 |
| 20260504000419 | 66 | 259 | 1.7 | 5.2 | 0.00 | 0.01 | 0.01 | 39 | 991.7 |
| 20260504000319 | 66 | 259 | 1.7 | 5.2 | 0.00 | 0.01 | 0.01 | 39 | 991.7 |
| 20260504000219 | 66 | 259 | 2.6 | 5.2 | 0.00 | 0.01 | 0.01 | 39 | 991.7 |
| 20260504000118 | 66 | 259 | 2.6 | 5.2 | 0.00 | 0.01 | 0.01 | 39 | 991.8 |
| 20260504000018 | 66 | 259 | 2.6 | 5.2 | 0.00 | 0.01 | 0.01 | 39 | 991.7 |
| 20260503235920 | 66 | 259 | 2.6 | 5.2 | 0.00 | 0.01 | 0.01 | 39 | 991.7 |
| 20260503235820 | 66 | 259 | 2.6 | 5.2 | 0.00 | 0.01 | 0.01 | 38 | 991.7 |
| 20260503235719 | 66 | 259 | 1.7 | 5.2 | 0.00 | 0.01 | 0.01 | 38 | 991.7 |
| 20260503235647 | 66 | 265 | 1.7 | 5.2 | 0.00 | 0.01 | 0.01 | 38 | 991.9 |
| 20260503235638 | 66 | 259 | 2.6 | 5.2 | 0.00 | 0.01 | 0.01 | 38 | 991.8 |
| 20260503235420 | 66 | 264 | 1.7 | 5.2 | 0.00 | 0.01 | 0.01 | 40 | 991.8 |
| 20260503235319 | 66 | 301 | 1.7 | 5.2 | 0.00 | 0.01 | 0.01 | 38 | 991.8 |
| 20260503235217 | 66 | 301 | 1.7 | 5.2 | 0.00 | 0.01 | 0.01 | 38 | 991.8 |
| 20260503235120 | 66 | 301 | 1.7 | 5.2 | 0.00 | 0.01 | 0.01 | 38 | 991.8 |
| 20260503235019 | 66 | 301 | 1.7 | 5.2 | 0.00 | 0.01 | 0.01 | 38 | 991.9 |
| 20260503234918 | 66 | 301 | 1.7 | 5.2 | 0.00 | 0.01 | 0.01 | 38 | 991.8 |
| 20260503234817 | 66 | 301 | 2.6 | 5.2 | 0.00 | 0.01 | 0.01 | 39 | 991.8 |
| 20260503234720 | 66 | 301 | 2.6 | 5.2 | 0.00 | 0.01 | 0.01 | 38 | 991.9 |
| 20260503234618 | 66 | 301 | 2.6 | 5.2 | 0.00 | 0.01 | 0.01 | 37 | 991.8 |
| 20260503234519 | 66 | 282 | 2.6 | 7.8 | 0.00 | 0.01 | 0.01 | 37 | 991.8 |
| 20260503234418 | 66 | 282 | 2.6 | 7.8 | 0.00 | 0.01 | 0.01 | 38 | 991.8 |
| 20260503234329 | 66 | 282 | 3.5 | 7.8 | 0.00 | 0.01 | 0.01 | 37 | 991.8 |
| 20260503234320 | 66 | 282 | 3.5 | 7.8 | 0.00 | 0.01 | 0.01 | 37 | 991.7 |
| 20260503234315 | 66 | 261 | 3.5 | 7.8 | 0.00 | 0.01 | 0.01 | 36 | 991.8 |
| 20260503234256 | 66 | 282 | 3.5 | 7.8 | 0.00 | 0.01 | 0.01 | 37 | 991.8 |
| 20260503233918 | 66 | 261 | 3.5 | 7.8 | 0.00 | 0.01 | 0.01 | 36 | 991.8 |
| 20260503233908 | 66 | 261 | 3.5 | 7.8 | 0.00 | 0.01 | 0.01 | 35 | 991.7 |
| 20260503233852 | 66 | 261 | 3.5 | 7.8 | 0.00 | 0.01 | 0.01 | 36 | 991.8 |
| 20260503233732 | 66 | 261 | 3.5 | 7.8 | 0.00 | 0.01 | 0.01 | 36 | 991.8 |
| 20260503233514 | 66 | 245 | 3.5 | 8.7 | 0.00 | 0.01 | 0.01 | 36 | 991.8 |
| 20260503233412 | 66 | 244 | 3.5 | 8.7 | 0.00 | 0.01 | 0.01 | 37 | 991.8 |
| 20260503233311 | 67 | 239 | 3.5 | 8.7 | 0.00 | 0.01 | 0.01 | 36 | 991.7 |
| 20260503233204 | 67 | 216 | 2.6 | 8.7 | 0.00 | 0.01 | 0.01 | 38 | 991.7 |
| 20260503233105 | 67 | 261 | 2.6 | 8.7 | 0.00 | 0.01 | 0.01 | 37 | 991.7 |
| 20260503233005 | 67 | 257 | 3.5 | 8.7 | 0.00 | 0.01 | 0.01 | 38 | 991.7 |
| 20260503232905 | 67 | 249 | 3.5 | 8.7 | 0.00 | 0.01 | 0.01 | 38 | 991.7 |
| 20260503232803 | 67 | 249 | 3.5 | 8.7 | 0.00 | 0.01 | 0.01 | 37 | 991.6 |
| 20260503232653 | 67 | 249 | 3.5 | 8.7 | 0.00 | 0.01 | 0.01 | 38 | 991.6 |
| 20260503232553 | 67 | 234 | 3.5 | 8.7 | 0.00 | 0.01 | 0.01 | 37 | 991.7 |
| 20260503232451 | 67 | 248 | 4.3 | 10.4 | 0.00 | 0.01 | 0.01 | 36 | 991.6 |
| 20260503232350 | 67 | 319 | 4.3 | 10.4 | 0.00 | 0.01 | 0.01 | 35 | 991.7 |
| 20260503232300 | 67 | 282 | 3.5 | 10.4 | 0.00 | 0.01 | 0.01 | 35 | 991.8 |
| 20260503232251 | 67 | 257 | 3.5 | 10.4 | 0.00 | 0.01 | 0.01 | 35 | 991.7 |
| 20260503232231 | 67 | 294 | 3.5 | 10.4 | 0.00 | 0.01 | 0.01 | 35 | 991.7 |
| 20260503232107 | 67 | 287 | 3.5 | 10.4 | 0.00 | 0.01 | 0.01 | 35 | 991.7 |
| 20260503231942 | 67 | 300 | 3.5 | 10.4 | 0.00 | 0.01 | 0.01 | 35 | 991.7 |
| 20260503231935 | 67 | 298 | 3.5 | 10.4 | 0.00 | 0.01 | 0.01 | 35 | 991.8 |
| 20260503231918 | 67 | 279 | 3.5 | 10.4 | 0.00 | 0.01 | 0.01 | 35 | 991.7 |
| 20260503231536 | 67 | 277 | 3.5 | 10.4 | 0.00 | 0.01 | 0.01 | 34 | 991.8 |
| 20260503231516 | 67 | 257 | 3.5 | 10.4 | 0.00 | 0.01 | 0.01 | 34 | 991.7 |
| 20260503231500 | 67 | 313 | 3.5 | 10.4 | 0.00 | 0.01 | 0.01 | 34 | 991.7 |
| 20260503231335 | 67 | 290 | 3.5 | 10.4 | 0.00 | 0.01 | 0.01 | 34 | 991.8 |
| 20260503231330 | 68 | 290 | 4.3 | 10.4 | 0.00 | 0.01 | 0.01 | 35 | 991.7 |
| 20260503231311 | 67 | 311 | 3.5 | 10.4 | 0.00 | 0.01 | 0.01 | 34 | 991.7 |
| 20260503230934 | 68 | 257 | 4.3 | 10.4 | 0.00 | 0.01 | 0.01 | 33 | 991.7 |
| 20260503230832 | 68 | 309 | 4.3 | 10.4 | 0.00 | 0.01 | 0.01 | 33 | 991.7 |
| 20260503230805 | 68 | 270 | 4.3 | 8.7 | 0.00 | 0.01 | 0.01 | 33 | 991.9 |
| 20260503230801 | 68 | 284 | 4.3 | 8.7 | 0.00 | 0.01 | 0.01 | 33 | 991.8 |
| 20260503230748 | 68 | 304 | 4.3 | 10.4 | 0.00 | 0.01 | 0.01 | 34 | 991.8 |
| 20260503230732 | 68 | 294 | 4.3 | 10.4 | 0.00 | 0.01 | 0.01 | 34 | 991.9 |
| 20260503230450 | 68 | 261 | 4.3 | 8.7 | 0.00 | 0.01 | 0.01 | 33 | 991.9 |
| 20260503230230 | 68 | 246 | 4.3 | 8.7 | 0.00 | 0.01 | 0.01 | 34 | 992.0 |
| 20260503230156 | 68 | 267 | 3.5 | 7.0 | 0.00 | 0.01 | 0.01 | 34 | 992.0 |
| 20260503230147 | 68 | 262 | 4.3 | 8.7 | 0.00 | 0.01 | 0.01 | 34 | 992.0 |
| 20260503225927 | 68 | 261 | 3.5 | 7.0 | 0.00 | 0.01 | 0.01 | 33 | 992.1 |
| 20260503225826 | 68 | 280 | 4.3 | 7.0 | 0.00 | 0.01 | 0.01 | 32 | 992.1 |
| 20260503225725 | 68 | 309 | 4.3 | 7.8 | 0.00 | 0.01 | 0.01 | 32 | 992.1 |
| 20260503225627 | 68 | 263 | 4.3 | 8.7 | 0.00 | 0.01 | 0.01 | 33 | 992.1 |
| 20260503225551 | 68 | 306 | 5.2 | 8.7 | 0.00 | 0.01 | 0.01 | 34 | 992.2 |
| 20260503225541 | 68 | 234 | 4.3 | 8.7 | 0.00 | 0.01 | 0.01 | 34 | 992.1 |
| 20260503225322 | 68 | 235 | 5.2 | 9.6 | 0.00 | 0.01 | 0.01 | 35 | 992.1 |
| 20260503225221 | 68 | 310 | 5.2 | 9.6 | 0.00 | 0.01 | 0.01 | 35 | 992.3 |
| 20260503225120 | 68 | 297 | 6.1 | 9.6 | 0.00 | 0.01 | 0.01 | 34 | 992.2 |
| 20260503225020 | 68 | 279 | 6.1 | 9.6 | 0.00 | 0.01 | 0.01 | 34 | 992.3 |
| 20260503224921 | 68 | 283 | 7.0 | 9.6 | 0.00 | 0.01 | 0.01 | 34 | 992.2 |
| 20260503224822 | 68 | 277 | 6.1 | 9.6 | 0.00 | 0.01 | 0.01 | 34 | 992.3 |
| 20260503224720 | 68 | 248 | 6.1 | 9.6 | 0.00 | 0.01 | 0.01 | 34 | 992.2 |
| 20260503224621 | 68 | 249 | 6.1 | 9.6 | 0.00 | 0.01 | 0.01 | 35 | 992.3 |
| 20260503224533 | 68 | 269 | 6.1 | 9.6 | 0.00 | 0.01 | 0.01 | 35 | 992.3 |
| 20260503224523 | 68 | 270 | 6.1 | 9.6 | 0.00 | 0.01 | 0.01 | 35 | 992.3 |
| 20260503224504 | 68 | 323 | 6.1 | 9.6 | 0.00 | 0.01 | 0.01 | 34 | 992.3 |
| 20260503224342 | 68 | 287 | 6.1 | 9.6 | 0.00 | 0.01 | 0.01 | 34 | 992.2 |
| 20260503224119 | 69 | 280 | 5.2 | 9.6 | 0.00 | 0.01 | 0.01 | 34 | 992.2 |
| 20260503224021 | 69 | 288 | 5.2 | 9.6 | 0.00 | 0.01 | 0.01 | 36 | 992.2 |
| 20260503224014 | 69 | 258 | 4.3 | 8.7 | 0.00 | 0.01 | 0.01 | 37 | 992.3 |
| 20260503223956 | 69 | 272 | 4.3 | 9.6 | 0.00 | 0.01 | 0.01 | 35 | 992.3 |
| 20260503223836 | 69 | 265 | 4.3 | 8.7 | 0.00 | 0.01 | 0.01 | 37 | 992.3 |
| 20260503223616 | 69 | 252 | 4.3 | 8.7 | 0.00 | 0.01 | 0.01 | 37 | 992.3 |
| 20260503223517 | 69 | 254 | 4.3 | 8.7 | 0.00 | 0.01 | 0.01 | 37 | 992.4 |
| 20260503223457 | 69 | 273 | 5.2 | 10.4 | 0.00 | 0.01 | 0.01 | 37 | 992.4 |
| 20260503223444 | 69 | 275 | 4.3 | 8.7 | 0.00 | 0.01 | 0.01 | 35 | 992.3 |
| 20260503223320 | 69 | 272 | 4.3 | 8.7 | 0.00 | 0.01 | 0.01 | 34 | 992.4 |
| 20260503223259 | 69 | 301 | 4.3 | 8.7 | 0.00 | 0.01 | 0.01 | 35 | 992.4 |
| 20260503223138 | 69 | 295 | 4.3 | 8.7 | 0.00 | 0.01 | 0.01 | 35 | 992.4 |
| 20260503222929 | 69 | 250 | 6.1 | 10.4 | 0.00 | 0.01 | 0.01 | 36 | 992.4 |
| 20260503222919 | 69 | 276 | 5.2 | 10.4 | 0.00 | 0.01 | 0.01 | 36 | 992.3 |
| 20260503222912 | 69 | 267 | 6.1 | 10.4 | 0.00 | 0.01 | 0.01 | 35 | 992.4 |
| 20260503222853 | 69 | 257 | 5.2 | 10.4 | 0.00 | 0.01 | 0.01 | 35 | 992.4 |
| 20260503222513 | 69 | 281 | 6.1 | 10.4 | 0.00 | 0.01 | 0.01 | 35 | 992.4 |
| 20260503222412 | 69 | 276 | 6.1 | 10.4 | 0.00 | 0.01 | 0.01 | 36 | 992.4 |
| 20260503222345 | 69 | 244 | 5.2 | 10.4 | 0.00 | 0.01 | 0.01 | 34 | 992.4 |
| 20260503222339 | 69 | 250 | 5.2 | 10.4 | 0.00 | 0.01 | 0.01 | 34 | 992.5 |
| 20260503222334 | 69 | 273 | 5.2 | 10.4 | 0.00 | 0.01 | 0.01 | 35 | 992.4 |
| 20260503222322 | 69 | 271 | 6.1 | 10.4 | 0.00 | 0.01 | 0.01 | 37 | 992.4 |
| 20260503222306 | 69 | 312 | 6.1 | 10.4 | 0.00 | 0.01 | 0.01 | 36 | 992.4 |
| 20260503221808 | 69 | 244 | 5.2 | 10.4 | 0.00 | 0.01 | 0.01 | 35 | 992.4 |
| 20260503221707 | 69 | 220 | 4.3 | 10.4 | 0.00 | 0.01 | 0.01 | 35 | 992.5 |
| 20260503221604 | 69 | 296 | 4.3 | 9.6 | 0.00 | 0.01 | 0.01 | 35 | 992.5 |
| 20260503221505 | 69 | 312 | 4.3 | 8.7 | 0.00 | 0.01 | 0.01 | 34 | 992.5 |
| 20260503221436 | 69 | 245 | 3.5 | 7.8 | 0.00 | 0.01 | 0.01 | 37 | 992.6 |
| 20260503221426 | 69 | 321 | 4.3 | 7.8 | 0.00 | 0.01 | 0.01 | 36 | 992.5 |
| 20260503221201 | 69 | 286 | 4.3 | 7.8 | 0.00 | 0.01 | 0.01 | 35 | 992.5 |
| 20260503221101 | 69 | 253 | 4.3 | 7.8 | 0.00 | 0.01 | 0.01 | 35 | 992.6 |
| 20260503221000 | 69 | 297 | 4.3 | 7.8 | 0.00 | 0.01 | 0.01 | 35 | 992.6 |
| 20260503220901 | 69 | 336 | 3.5 | 7.8 | 0.00 | 0.01 | 0.01 | 36 | 992.6 |
| 20260503220758 | 69 | 290 | 4.3 | 7.8 | 0.00 | 0.01 | 0.01 | 37 | 992.6 |
| 20260503220658 | 69 | 284 | 4.3 | 7.8 | 0.00 | 0.01 | 0.01 | 35 | 992.5 |
| 20260503220557 | 69 | 292 | 3.5 | 7.8 | 0.00 | 0.01 | 0.01 | 35 | 992.4 |
| 20260503220457 | 69 | 296 | 3.5 | 7.8 | 0.00 | 0.02 | 0.01 | 35 | 992.6 |
| 20260503220354 | 69 | 315 | 3.5 | 7.8 | 0.00 | 0.02 | 0.01 | 36 | 992.6 |
| 20260503220255 | 69 | 271 | 3.5 | 7.8 | 0.00 | 0.02 | 0.01 | 37 | 992.6 |
| 20260503220152 | 69 | 329 | 3.5 | 7.8 | 0.00 | 0.02 | 0.01 | 37 | 992.6 |
| 20260503220052 | 69 | 286 | 3.5 | 7.8 | 0.00 | 0.02 | 0.01 | 38 | 992.5 |
| 20260503215951 | 69 | 0 | 3.5 | 7.8 | 0.00 | 0.02 | 0.01 | 35 | 992.6 |
| 20260503215943 | 69 | 348 | 3.5 | 10.4 | 0.00 | 0.02 | 0.01 | 38 | 992.6 |
| 20260503215926 | 69 | 338 | 3.5 | 7.8 | 0.00 | 0.02 | 0.01 | 35 | 992.6 |
| 20260503215804 | 69 | 346 | 3.5 | 10.4 | 0.00 | 0.02 | 0.01 | 39 | 992.6 |
| 20260503215546 | 69 | 342 | 3.5 | 10.4 | 0.00 | 0.02 | 0.01 | 38 | 992.6 |
| 20260503215447 | 69 | 307 | 3.5 | 10.4 | 0.00 | 0.02 | 0.01 | 35 | 992.6 |
| 20260503215347 | 69 | 307 | 3.5 | 10.4 | 0.00 | 0.02 | 0.01 | 35 | 992.7 |
| 20260503215247 | 69 | 348 | 3.5 | 10.4 | 0.00 | 0.02 | 0.01 | 36 | 992.7 |
| 20260503215144 | 69 | 325 | 3.5 | 10.4 | 0.00 | 0.02 | 0.01 | 36 | 992.7 |
| 20260503215044 | 69 | 297 | 3.5 | 10.4 | 0.00 | 0.02 | 0.01 | 39 | 992.7 |
| 20260503214941 | 69 | 246 | 4.3 | 10.4 | 0.00 | 0.02 | 0.01 | 36 | 992.7 |
| 20260503214840 | 69 | 290 | 4.3 | 10.4 | 0.00 | 0.02 | 0.01 | 36 | 992.8 |
| 20260503214805 | 69 | 346 | 4.3 | 7.8 | 0.00 | 0.02 | 0.01 | 35 | 992.7 |
| 20260503214756 | 69 | 327 | 4.3 | 9.6 | 0.00 | 0.02 | 0.01 | 36 | 992.8 |
| 20260503214535 | 69 | 326 | 3.5 | 7.8 | 0.00 | 0.02 | 0.01 | 36 | 992.8 |
| 20260503214433 | 69 | 319 | 4.3 | 7.8 | 0.00 | 0.02 | 0.01 | 36 | 992.7 |
| 20260503214334 | 69 | 340 | 4.3 | 7.8 | 0.00 | 0.02 | 0.01 | 36 | 992.8 |
| 20260503214232 | 69 | 355 | 4.3 | 9.6 | 0.00 | 0.02 | 0.01 | 37 | 992.9 |
| 20260503214137 | 69 | 259 | 5.2 | 11.3 | 0.00 | 0.02 | 0.01 | 37 | 992.8 |
| 20260503214128 | 69 | 320 | 5.2 | 9.6 | 0.00 | 0.02 | 0.01 | 38 | 992.8 |
| 20260503214105 | 69 | 263 | 5.2 | 11.3 | 0.00 | 0.02 | 0.01 | 37 | 992.8 |
| 20260503213944 | 69 | 315 | 5.2 | 11.3 | 0.00 | 0.02 | 0.01 | 38 | 992.9 |
| 20260503213719 | 69 | 247 | 5.2 | 11.3 | 0.00 | 0.02 | 0.01 | 36 | 992.9 |
| 20260503213618 | 69 | 227 | 5.2 | 11.3 | 0.00 | 0.02 | 0.01 | 36 | 992.9 |
| 20260503213519 | 69 | 223 | 5.2 | 11.3 | 0.00 | 0.02 | 0.01 | 35 | 992.8 |
| 20260503213419 | 69 | 264 | 4.3 | 11.3 | 0.00 | 0.02 | 0.01 | 35 | 993.0 |
| 20260503213319 | 69 | 269 | 4.3 | 11.3 | 0.00 | 0.02 | 0.01 | 35 | 992.9 |
| 20260503213225 | 69 | 273 | 5.2 | 9.6 | 0.00 | 0.02 | 0.01 | 36 | 992.9 |
| 20260503213215 | 69 | 262 | 4.3 | 11.3 | 0.00 | 0.02 | 0.01 | 38 | 992.9 |
| 20260503213156 | 69 | 255 | 4.3 | 11.3 | 0.00 | 0.02 | 0.01 | 38 | 993.0 |
| 20260503213034 | 69 | 267 | 5.2 | 9.6 | 0.00 | 0.02 | 0.01 | 39 | 993.0 |
| 20260503212814 | 69 | 267 | 5.2 | 9.6 | 0.00 | 0.02 | 0.01 | 36 | 992.8 |
| 20260503212706 | 69 | 289 | 5.2 | 9.6 | 0.00 | 0.02 | 0.01 | 36 | 992.9 |
| 20260503212605 | 69 | 323 | 6.1 | 9.6 | 0.00 | 0.02 | 0.01 | 35 | 992.9 |
| 20260503212507 | 69 | 308 | 5.2 | 9.6 | 0.00 | 0.02 | 0.01 | 35 | 993.1 |
| 20260503212405 | 69 | 261 | 5.2 | 9.6 | 0.00 | 0.02 | 0.01 | 35 | 993.0 |
| 20260503212305 | 69 | 244 | 5.2 | 9.6 | 0.00 | 0.02 | 0.01 | 36 | 993.0 |
| 20260503212203 | 69 | 252 | 5.2 | 9.6 | 0.00 | 0.02 | 0.01 | 36 | 993.0 |
| 20260503212104 | 69 | 229 | 5.2 | 9.6 | 0.00 | 0.02 | 0.01 | 35 | 993.1 |
| 20260503212002 | 69 | 262 | 5.2 | 10.4 | 0.00 | 0.02 | 0.01 | 36 | 993.1 |
| 20260503211930 | 69 | 220 | 4.3 | 10.4 | 0.00 | 0.02 | 0.01 | 35 | 993.1 |
| 20260503211921 | 69 | 255 | 4.3 | 10.4 | 0.00 | 0.02 | 0.01 | 38 | 993.1 |
| 20260503211701 | 69 | 271 | 4.3 | 10.4 | 0.00 | 0.02 | 0.01 | 35 | 993.0 |
| 20260503211629 | 69 | 212 | 5.2 | 11.3 | 0.00 | 0.02 | 0.01 | 34 | 993.1 |
| 20260503211619 | 69 | 254 | 5.2 | 11.3 | 0.00 | 0.02 | 0.01 | 37 | 993.1 |
| 20260503211401 | 69 | 212 | 5.2 | 11.3 | 0.00 | 0.02 | 0.01 | 35 | 993.1 |
| 20260503211330 | 69 | 223 | 5.2 | 11.3 | 0.00 | 0.02 | 0.01 | 37 | 993.1 |
| 20260503211319 | 69 | 222 | 5.2 | 11.3 | 0.00 | 0.02 | 0.01 | 37 | 993.0 |
| 20260503211132 | 69 | 296 | 5.2 | 11.3 | 0.00 | 0.02 | 0.01 | 38 | 993.2 |
| 20260503211122 | 69 | 243 | 4.3 | 11.3 | 0.00 | 0.02 | 0.01 | 35 | 993.1 |
| 20260503211100 | 69 | 223 | 4.3 | 11.3 | 0.00 | 0.02 | 0.01 | 35 | 993.1 |
| 20260503210934 | 69 | 268 | 4.3 | 11.3 | 0.00 | 0.02 | 0.01 | 35 | 993.1 |
| 20260503210814 | 69 | 294 | 5.2 | 11.3 | 0.00 | 0.02 | 0.01 | 35 | 993.1 |
| 20260503210555 | 69 | 275 | 4.3 | 11.3 | 0.00 | 0.02 | 0.01 | 39 | 993.2 |
| 20260503210448 | 69 | 263 | 4.3 | 11.3 | 0.00 | 0.02 | 0.01 | 39 | 993.1 |
| 20260503210347 | 69 | 318 | 4.3 | 11.3 | 0.00 | 0.02 | 0.01 | 38 | 993.1 |
| 20260503210248 | 69 | 355 | 4.3 | 11.3 | 0.00 | 0.02 | 0.01 | 36 | 993.2 |
| 20260503210147 | 69 | 266 | 4.3 | 11.3 | 0.00 | 0.02 | 0.01 | 37 | 993.1 |
| 20260503210118 | 69 | 343 | 4.3 | 11.3 | 0.00 | 0.02 | 0.01 | 35 | 993.2 |
| 20260503210108 | 69 | 316 | 4.3 | 11.3 | 0.00 | 0.02 | 0.01 | 35 | 993.2 |
| 20260503205917 | 69 | 349 | 3.5 | 10.4 | 0.00 | 0.02 | 0.01 | 39 | 993.2 |
| 20260503205907 | 69 | 292 | 4.3 | 10.4 | 0.00 | 0.02 | 0.01 | 38 | 993.2 |
| 20260503205645 | 69 | 278 | 3.5 | 9.6 | 0.00 | 0.02 | 0.01 | 43 | 993.3 |
| 20260503205542 | 69 | 311 | 3.5 | 9.6 | 0.00 | 0.02 | 0.01 | 41 | 993.3 |
| 20260503205431 | 68 | 289 | 3.5 | 9.6 | 0.00 | 0.02 | 0.01 | 39 | 993.3 |
| 20260503205332 | 68 | 281 | 3.5 | 9.6 | 0.00 | 0.02 | 0.01 | 37 | 993.2 |
| 20260503205229 | 68 | 202 | 3.5 | 9.6 | 0.00 | 0.02 | 0.01 | 34 | 993.3 |
| 20260503205130 | 68 | 215 | 3.5 | 9.6 | 0.00 | 0.02 | 0.01 | 35 | 993.4 |
| 20260503205028 | 68 | 277 | 3.5 | 9.6 | 0.00 | 0.02 | 0.01 | 38 | 993.5 |
| 20260503204922 | 68 | 290 | 3.5 | 7.8 | 0.00 | 0.02 | 0.01 | 37 | 993.4 |
| 20260503204821 | 68 | 269 | 3.5 | 7.0 | 0.00 | 0.02 | 0.01 | 37 | 993.4 |
| 20260503204721 | 68 | 224 | 2.6 | 7.0 | 0.00 | 0.02 | 0.01 | 39 | 993.5 |
| 20260503204651 | 68 | 286 | 2.6 | 7.0 | 0.00 | 0.02 | 0.01 | 35 | 993.5 |
| 20260503204642 | 68 | 275 | 2.6 | 7.0 | 0.00 | 0.02 | 0.01 | 36 | 993.5 |
| 20260503204429 | 68 | 333 | 3.5 | 8.7 | 0.00 | 0.02 | 0.01 | 38 | 993.5 |
| 20260503204418 | 68 | 331 | 2.6 | 7.0 | 0.00 | 0.02 | 0.01 | 38 | 993.5 |
| 20260503204412 | 68 | 296 | 3.5 | 8.7 | 0.00 | 0.02 | 0.01 | 42 | 993.5 |
| 20260503204354 | 68 | 318 | 3.5 | 7.0 | 0.00 | 0.02 | 0.01 | 38 | 993.5 |
| 20260503204017 | 68 | 319 | 3.5 | 8.7 | 0.00 | 0.02 | 0.01 | 37 | 993.6 |
| 20260503203943 | 68 | 254 | 5.2 | 9.6 | 0.00 | 0.02 | 0.01 | 36 | 993.6 |
| 20260503203939 | 68 | 298 | 4.3 | 9.6 | 0.00 | 0.02 | 0.01 | 38 | 993.6 |
| 20260503203927 | 68 | 265 | 4.3 | 9.6 | 0.00 | 0.02 | 0.01 | 37 | 993.5 |
| 20260503203801 | 68 | 323 | 6.1 | 9.6 | 0.00 | 0.02 | 0.01 | 36 | 993.6 |
| 20260503203743 | 68 | 279 | 4.3 | 9.6 | 0.00 | 0.02 | 0.01 | 38 | 993.6 |
| 20260503203625 | 68 | 236 | 5.2 | 9.6 | 0.00 | 0.02 | 0.01 | 37 | 993.7 |
| 20260503203614 | 68 | 106 | 4.3 | 9.6 | 0.00 | 0.02 | 0.01 | 38 | 993.4 |
| 20260503203559 | 68 | 323 | 5.2 | 9.6 | 0.00 | 0.02 | 0.01 | 38 | 993.5 |
| 20260503203132 | 68 | 295 | 4.3 | 8.7 | 0.00 | 0.02 | 0.01 | 38 | 993.7 |
| 20260503203122 | 68 | 212 | 5.2 | 9.6 | 0.00 | 0.02 | 0.01 | 38 | 993.7 |
| 20260503202856 | 68 | 300 | 4.3 | 8.7 | 0.00 | 0.02 | 0.01 | 38 | 993.6 |
| 20260503202756 | 68 | 327 | 4.3 | 8.7 | 0.00 | 0.02 | 0.01 | 37 | 993.7 |
| 20260503202655 | 68 | 337 | 5.2 | 10.4 | 0.00 | 0.02 | 0.01 | 37 | 993.7 |
| 20260503202556 | 68 | 292 | 5.2 | 11.3 | 0.00 | 0.02 | 0.01 | 37 | 993.8 |
| 20260503202455 | 68 | 285 | 5.2 | 11.3 | 0.00 | 0.02 | 0.01 | 37 | 993.7 |
| 20260503202341 | 68 | 266 | 5.2 | 11.3 | 0.00 | 0.02 | 0.01 | 36 | 993.8 |
| 20260503202240 | 68 | 263 | 5.2 | 11.3 | 0.00 | 0.02 | 0.01 | 39 | 993.8 |
| 20260503202143 | 68 | 243 | 5.2 | 11.3 | 0.00 | 0.02 | 0.01 | 37 | 993.7 |
| 20260503202110 | 67 | 263 | 6.1 | 11.3 | 0.00 | 0.02 | 0.01 | 35 | 993.9 |
| 20260503202101 | 67 | 252 | 5.2 | 11.3 | 0.00 | 0.02 | 0.01 | 39 | 993.8 |
| 20260503201840 | 67 | 295 | 6.1 | 11.3 | 0.00 | 0.02 | 0.01 | 36 | 993.9 |
| 20260503201808 | 68 | 257 | 5.2 | 11.3 | 0.00 | 0.02 | 0.01 | 36 | 993.9 |
| 20260503201759 | 68 | 255 | 5.2 | 11.3 | 0.00 | 0.02 | 0.01 | 36 | 994.1 |
| 20260503201536 | 68 | 297 | 4.3 | 10.4 | 0.00 | 0.02 | 0.01 | 37 | 994.0 |
| 20260503201434 | 68 | 280 | 4.3 | 10.4 | 0.00 | 0.02 | 0.01 | 38 | 994.1 |
| 20260503201328 | 68 | 282 | 3.5 | 10.4 | 0.00 | 0.02 | 0.01 | 36 | 994.2 |
| 20260503201301 | 68 | 246 | 3.5 | 10.4 | 0.00 | 0.02 | 0.01 | 35 | 994.3 |
| 20260503201253 | 68 | 302 | 3.5 | 10.4 | 0.00 | 0.02 | 0.01 | 36 | 994.1 |
| 20260503201231 | 68 | 270 | 3.5 | 10.4 | 0.00 | 0.02 | 0.01 | 38 | 994.2 |
| 20260503201119 | 68 | 284 | 3.5 | 10.4 | 0.00 | 0.02 | 0.01 | 37 | 994.3 |
| 20260503201103 | 68 | 310 | 3.5 | 10.4 | 0.00 | 0.02 | 0.01 | 39 | 994.2 |
| 20260503200816 | 67 | 238 | 4.3 | 10.4 | 0.00 | 0.02 | 0.01 | 36 | 994.3 |
| 20260503200811 | 67 | 235 | 4.3 | 10.4 | 0.00 | 0.02 | 0.01 | 39 | 994.3 |
| 20260503200755 | 67 | 317 | 3.5 | 10.4 | 0.00 | 0.02 | 0.01 | 37 | 994.3 |
| 20260503200449 | 67 | 309 | 4.3 | 10.4 | 0.00 | 0.02 | 0.01 | 36 | 994.3 |
| 20260503200439 | 67 | 219 | 4.3 | 10.4 | 0.00 | 0.02 | 0.01 | 38 | 994.3 |
| 20260503200221 | 67 | 281 | 5.2 | 10.4 | 0.00 | 0.02 | 0.01 | 34 | 994.4 |
| 20260503200150 | 67 | 263 | 5.2 | 10.4 | 0.00 | 0.02 | 0.01 | 36 | 994.4 |
| 20260503200140 | 67 | 319 | 5.2 | 10.4 | 0.00 | 0.02 | 0.01 | 36 | 994.4 |
| 20260503195919 | 67 | 252 | 5.2 | 10.4 | 0.00 | 0.02 | 0.01 | 37 | 994.4 |
| 20260503195821 | 67 | 276 | 5.2 | 10.4 | 0.00 | 0.02 | 0.01 | 40 | 994.5 |
| 20260503195718 | 67 | 261 | 5.2 | 10.4 | 0.00 | 0.02 | 0.01 | 38 | 994.4 |
| 20260503195644 | 67 | 240 | 5.2 | 10.4 | 0.00 | 0.02 | 0.01 | 37 | 994.5 |
| 20260503195636 | 67 | 247 | 5.2 | 10.4 | 0.00 | 0.02 | 0.01 | 36 | 994.4 |
| 20260503195415 | 67 | 280 | 6.1 | 10.4 | 0.00 | 0.02 | 0.01 | 37 | 994.5 |
| 20260503195315 | 67 | 281 | 6.1 | 10.4 | 0.00 | 0.02 | 0.01 | 35 | 994.5 |
| 20260503195217 | 67 | 279 | 5.2 | 10.4 | 0.00 | 0.02 | 0.01 | 37 | 994.6 |
| 20260503195110 | 67 | 254 | 5.2 | 10.4 | 0.00 | 0.02 | 0.01 | 37 | 994.6 |
| 20260503195009 | 67 | 263 | 5.2 | 10.4 | 0.00 | 0.02 | 0.01 | 38 | 994.5 |
| 20260503194911 | 67 | 274 | 5.2 | 10.4 | 0.00 | 0.02 | 0.01 | 37 | 994.6 |
| 20260503194810 | 67 | 284 | 5.2 | 9.6 | 0.00 | 0.02 | 0.01 | 37 | 994.4 |
| 20260503194709 | 67 | 319 | 5.2 | 9.6 | 0.00 | 0.02 | 0.01 | 40 | 994.5 |
| 20260503194610 | 67 | 242 | 5.2 | 9.6 | 0.00 | 0.02 | 0.01 | 39 | 994.4 |
| 20260503194507 | 67 | 213 | 5.2 | 9.6 | 0.00 | 0.02 | 0.01 | 37 | 994.5 |
| 20260503194409 | 67 | 227 | 4.3 | 9.6 | 0.00 | 0.02 | 0.01 | 40 | 994.6 |
| 20260503194348 | 67 | 117 | 4.3 | 8.7 | 0.00 | 0.02 | 0.01 | 35 | 994.6 |
| 20260503194342 | 67 | 242 | 5.2 | 8.7 | 0.00 | 0.02 | 0.01 | 35 | 994.7 |
| 20260503194338 | 67 | 250 | 4.3 | 8.7 | 0.00 | 0.02 | 0.01 | 37 | 994.7 |
| 20260503194333 | 67 | 261 | 5.2 | 9.6 | 0.00 | 0.02 | 0.01 | 39 | 994.8 |
| 20260503194329 | 67 | 191 | 3.5 | 9.6 | 0.00 | 0.02 | 0.01 | 37 | 994.7 |
| 20260503194323 | 67 | 290 | 3.5 | 8.7 | 0.00 | 0.02 | 0.01 | 38 | 994.6 |
| 20260503194312 | 67 | 221 | 4.3 | 9.6 | 0.00 | 0.02 | 0.01 | 40 | 994.7 |
| 20260503194256 | 67 | 217 | 4.3 | 9.6 | 0.00 | 0.02 | 0.01 | 37 | 994.6 |
| 20260503194016 | 67 | 268 | 4.3 | 8.7 | 0.00 | 0.02 | 0.01 | 36 | 994.7 |
| 20260503194012 | 67 | 261 | 4.3 | 8.7 | 0.00 | 0.02 | 0.01 | 38 | 994.8 |
| 20260503194002 | 67 | 210 | 3.5 | 9.6 | 0.00 | 0.02 | 0.01 | 40 | 994.6 |
| 20260503193941 | 67 | 230 | 3.5 | 9.6 | 0.00 | 0.02 | 0.01 | 39 | 994.7 |
| 20260503193821 | 67 | 292 | 3.5 | 8.7 | 0.00 | 0.02 | 0.01 | 39 | 994.6 |
| 20260503193759 | 67 | 302 | 3.5 | 8.7 | 0.00 | 0.02 | 0.01 | 37 | 994.6 |
| 20260503193630 | 67 | 123 | 4.3 | 8.7 | 0.00 | 0.02 | 0.01 | 41 | 994.6 |
| 20260503192756 | 66 | 261 | 5.2 | 9.6 | 0.00 | 0.02 | 0.01 | 41 | 994.7 |
| 20260503192656 | 66 | 263 | 5.2 | 9.6 | 0.00 | 0.02 | 0.01 | 38 | 994.8 |
| 20260503192621 | 66 | 310 | 5.2 | 9.6 | 0.00 | 0.02 | 0.01 | 41 | 994.9 |
| 20260503192612 | 66 | 268 | 5.2 | 9.6 | 0.00 | 0.02 | 0.01 | 41 | 994.8 |
| 20260503192352 | 66 | 280 | 5.2 | 9.6 | 0.00 | 0.02 | 0.01 | 40 | 994.9 |
| 20260503192249 | 66 | 210 | 5.2 | 9.6 | 0.00 | 0.02 | 0.01 | 39 | 994.8 |
| 20260503192149 | 66 | 246 | 5.2 | 9.6 | 0.00 | 0.02 | 0.01 | 39 | 994.9 |
| 20260503192049 | 66 | 240 | 5.2 | 9.6 | 0.00 | 0.02 | 0.01 | 39 | 994.9 |
| 20260503192014 | 66 | 227 | 5.2 | 10.4 | 0.00 | 0.02 | 0.01 | 38 | 994.9 |
| 20260503192005 | 66 | 194 | 6.1 | 10.4 | 0.00 | 0.02 | 0.01 | 38 | 994.9 |
| 20260503191741 | 66 | 257 | 5.2 | 11.3 | 0.00 | 0.02 | 0.01 | 42 | 994.9 |
| 20260503191639 | 66 | 253 | 5.2 | 11.3 | 0.00 | 0.02 | 0.01 | 39 | 995.0 |
| 20260503191539 | 66 | 219 | 5.2 | 11.3 | 0.00 | 0.02 | 0.01 | 37 | 994.9 |
| 20260503191532 | 66 | 213 | 5.2 | 11.3 | 0.00 | 0.02 | 0.01 | 40 | 994.9 |
| 20260503191515 | 66 | 227 | 4.3 | 11.3 | 0.00 | 0.02 | 0.01 | 39 | 995.0 |
| 20260503191354 | 66 | 216 | 4.3 | 11.3 | 0.00 | 0.02 | 0.01 | 38 | 995.0 |
| 20260503191134 | 66 | 215 | 4.3 | 11.3 | 0.00 | 0.02 | 0.01 | 36 | 995.0 |
| 20260503191034 | 66 | 259 | 4.3 | 11.3 | 0.00 | 0.02 | 0.01 | 36 | 995.1 |
| 20260503190936 | 66 | 236 | 4.3 | 11.3 | 0.00 | 0.02 | 0.01 | 36 | 995.1 |
| 20260503190837 | 66 | 302 | 4.3 | 11.3 | 0.00 | 0.02 | 0.01 | 37 | 995.3 |
| 20260503190828 | 66 | 315 | 4.3 | 11.3 | 0.00 | 0.02 | 0.01 | 34 | 995.1 |
| 20260503190821 | 66 | 271 | 5.2 | 11.3 | 0.00 | 0.02 | 0.01 | 40 | 995.2 |
| 20260503190817 | 66 | 296 | 5.2 | 11.3 | 0.00 | 0.02 | 0.01 | 35 | 995.2 |
| 20260503190801 | 66 | 236 | 5.2 | 11.3 | 0.00 | 0.02 | 0.01 | 40 | 995.1 |
| 20260503190623 | 66 | 252 | 5.2 | 11.3 | 0.00 | 0.02 | 0.01 | 38 | 995.2 |
| 20260503190341 | 66 | 327 | 4.3 | 11.3 | 0.00 | 0.02 | 0.01 | 38 | 995.2 |
| 20260503190122 | 66 | 290 | 4.3 | 11.3 | 0.00 | 0.02 | 0.01 | 36 | 995.2 |
| 20260503190024 | 66 | 288 | 4.3 | 11.3 | 0.00 | 0.02 | 0.01 | 36 | 995.3 |
| 20260503185923 | 66 | 298 | 3.5 | 11.3 | 0.00 | 0.02 | 0.01 | 36 | 995.3 |
| 20260503185821 | 66 | 277 | 3.5 | 9.6 | 0.00 | 0.02 | 0.01 | 39 | 995.2 |
| 20260503185721 | 66 | 221 | 2.6 | 8.7 | 0.00 | 0.02 | 0.01 | 39 | 995.2 |
| 20260503185622 | 66 | 242 | 3.5 | 8.7 | 0.00 | 0.02 | 0.01 | 38 | 995.3 |
| 20260503185522 | 66 | 262 | 3.5 | 8.7 | 0.00 | 0.02 | 0.01 | 37 | 995.3 |
| 20260503185422 | 66 | 11 | 3.5 | 8.7 | 0.00 | 0.02 | 0.01 | 38 | 995.2 |
| 20260503185325 | 66 | 273 | 3.5 | 8.7 | 0.00 | 0.02 | 0.01 | 38 | 995.2 |
| 20260503185318 | 66 | 27 | 4.3 | 8.7 | 0.00 | 0.02 | 0.01 | 36 | 995.3 |
| 20260503185313 | 65 | 341 | 4.3 | 8.7 | 0.00 | 0.02 | 0.01 | 35 | 995.3 |
| 20260503185254 | 66 | 268 | 3.5 | 8.7 | 0.00 | 0.02 | 0.01 | 36 | 995.3 |
| 20260503184915 | 65 | 226 | 4.3 | 10.4 | 0.00 | 0.02 | 0.01 | 35 | 995.4 |
| 20260503184818 | 65 | 187 | 4.3 | 10.4 | 0.00 | 0.02 | 0.01 | 35 | 995.3 |
| 20260503184747 | 65 | 211 | 3.5 | 10.4 | 0.00 | 0.02 | 0.01 | 36 | 995.3 |
| 20260503184737 | 65 | 205 | 4.3 | 10.4 | 0.00 | 0.02 | 0.01 | 36 | 995.4 |
| 20260503184511 | 65 | 221 | 3.5 | 10.4 | 0.00 | 0.02 | 0.01 | 40 | 995.4 |
| 20260503184412 | 65 | 236 | 3.5 | 10.4 | 0.00 | 0.02 | 0.01 | 34 | 995.4 |
| 20260503184313 | 65 | 242 | 2.6 | 10.4 | 0.00 | 0.02 | 0.01 | 37 | 995.5 |
| 20260503184210 | 65 | 267 | 2.6 | 10.4 | 0.00 | 0.02 | 0.01 | 35 | 995.5 |
| 20260503184106 | 65 | 282 | 2.6 | 10.4 | 0.00 | 0.02 | 0.01 | 37 | 995.4 |
| 20260503184007 | 65 | 252 | 2.6 | 10.4 | 0.00 | 0.02 | 0.01 | 38 | 995.5 |
| 20260503183906 | 64 | 290 | 2.6 | 8.7 | 0.00 | 0.02 | 0.01 | 36 | 995.5 |
| 20260503183807 | 64 | 312 | 2.6 | 8.7 | 0.00 | 0.02 | 0.01 | 40 | 995.5 |
| 20260503183706 | 64 | 271 | 2.6 | 8.7 | 0.00 | 0.02 | 0.01 | 38 | 995.5 |
| 20260503183604 | 64 | 271 | 3.5 | 8.7 | 0.00 | 0.02 | 0.01 | 37 | 995.6 |
| 20260503183502 | 64 | 271 | 3.5 | 8.7 | 0.00 | 0.02 | 0.01 | 37 | 995.6 |
| 20260503183408 | 65 | 271 | 4.3 | 8.7 | 0.00 | 0.02 | 0.01 | 37 | 995.5 |
| 20260503183301 | 65 | 271 | 4.3 | 8.7 | 0.00 | 0.02 | 0.01 | 37 | 995.6 |
| 20260503183201 | 65 | 271 | 4.3 | 8.7 | 0.00 | 0.02 | 0.01 | 37 | 995.7 |
| 20260503183059 | 65 | 265 | 3.5 | 8.7 | 0.00 | 0.02 | 0.01 | 40 | 995.7 |
| 20260503183001 | 65 | 248 | 3.5 | 8.7 | 0.00 | 0.02 | 0.01 | 37 | 995.6 |
| 20260503182857 | 65 | 242 | 3.5 | 8.7 | 0.00 | 0.02 | 0.01 | 37 | 995.7 |
| 20260503182758 | 64 | 19 | 3.5 | 8.7 | 0.00 | 0.02 | 0.01 | 40 | 995.7 |
| 20260503182655 | 65 | 28 | 3.5 | 8.7 | 0.00 | 0.02 | 0.01 | 38 | 995.6 |
| 20260503182557 | 64 | 312 | 2.6 | 8.7 | 0.00 | 0.02 | 0.01 | 45 | 995.7 |
| 20260503182454 | 64 | 319 | 2.6 | 8.7 | 0.00 | 0.02 | 0.01 | 45 | 995.7 |
| 20260503182354 | 64 | 332 | 2.6 | 7.8 | 0.00 | 0.02 | 0.01 | 45 | 995.6 |
| 20260503182253 | 64 | 261 | 2.6 | 7.8 | 0.00 | 0.02 | 0.01 | 44 | 995.6 |
| 20260503182154 | 64 | 180 | 2.6 | 7.8 | 0.00 | 0.02 | 0.01 | 41 | 995.7 |
| 20260503182054 | 64 | 180 | 2.6 | 7.8 | 0.00 | 0.02 | 0.01 | 42 | 995.7 |
| 20260503181952 | 64 | 164 | 2.6 | 7.8 | 0.00 | 0.02 | 0.01 | 39 | 995.7 |
| 20260503181852 | 64 | 190 | 2.6 | 7.8 | 0.00 | 0.02 | 0.01 | 38 | 995.8 |
| 20260503181750 | 64 | 163 | 2.6 | 7.8 | 0.00 | 0.02 | 0.01 | 39 | 995.7 |
| 20260503181650 | 64 | 294 | 3.5 | 7.8 | 0.00 | 0.02 | 0.01 | 38 | 995.8 |
| 20260503181548 | 64 | 294 | 3.5 | 7.8 | 0.00 | 0.02 | 0.01 | 38 | 995.7 |
| 20260503181446 | 64 | 307 | 3.5 | 7.8 | 0.00 | 0.02 | 0.01 | 39 | 995.8 |
| 20260503181346 | 64 | 280 | 3.5 | 7.0 | 0.00 | 0.02 | 0.01 | 39 | 995.9 |
| 20260503181313 | 64 | 325 | 3.5 | 7.0 | 0.00 | 0.02 | 0.01 | 41 | 995.8 |
| 20260503181304 | 64 | 288 | 3.5 | 7.0 | 0.00 | 0.02 | 0.01 | 42 | 995.8 |
| 20260503181043 | 64 | 333 | 3.5 | 7.0 | 0.00 | 0.02 | 0.01 | 46 | 995.8 |
| 20260503180940 | 64 | 306 | 3.5 | 7.0 | 0.00 | 0.02 | 0.01 | 44 | 995.9 |
| 20260503180837 | 64 | 269 | 2.6 | 7.0 | 0.00 | 0.02 | 0.01 | 41 | 995.8 |
| 20260503180737 | 64 | 280 | 2.6 | 7.0 | 0.00 | 0.02 | 0.01 | 43 | 995.9 |
| 20260503180639 | 64 | 299 | 2.6 | 7.0 | 0.00 | 0.02 | 0.01 | 41 | 995.9 |
| 20260503180535 | 64 | 338 | 2.6 | 7.0 | 0.00 | 0.02 | 0.01 | 40 | 995.8 |
| 20260503180436 | 64 | 322 | 2.6 | 7.0 | 0.00 | 0.02 | 0.01 | 47 | 995.9 |
| 20260503180409 | 63 | 182 | 3.5 | 7.0 | 0.00 | 0.02 | 0.01 | 41 | 995.9 |
| 20260503180403 | 63 | 25 | 2.6 | 7.0 | 0.00 | 0.02 | 0.01 | 42 | 995.8 |
| 20260503180353 | 64 | 318 | 2.6 | 7.0 | 0.00 | 0.02 | 0.01 | 47 | 995.8 |
| 20260503180211 | 63 | 279 | 2.6 | 7.0 | 0.00 | 0.02 | 0.01 | 45 | 995.8 |
| 20260503180050 | 63 | 115 | 3.5 | 7.0 | 0.00 | 0.02 | 0.01 | 43 | 995.9 |
| 20260503175859 | 63 | 171 | 4.3 | 7.0 | 0.00 | 0.02 | 0.01 | 42 | 995.9 |
| 20260503175849 | 63 | 192 | 3.5 | 7.0 | 0.00 | 0.02 | 0.01 | 41 | 995.9 |
| 20260503175629 | 63 | 164 | 4.3 | 7.0 | 0.00 | 0.02 | 0.01 | 47 | 995.9 |
| 20260503175528 | 63 | 238 | 4.3 | 7.0 | 0.00 | 0.02 | 0.01 | 43 | 996.0 |
| 20260503175428 | 63 | 207 | 4.3 | 7.0 | 0.00 | 0.02 | 0.01 | 42 | 995.9 |
| 20260503175328 | 63 | 183 | 4.3 | 7.0 | 0.00 | 0.02 | 0.01 | 40 | 996.0 |
| 20260503175256 | 62 | 203 | 4.3 | 7.8 | 0.00 | 0.02 | 0.01 | 46 | 996.0 |
| 20260503175247 | 63 | 168 | 4.3 | 7.8 | 0.00 | 0.02 | 0.01 | 42 | 996.0 |
| 20260503175025 | 62 | 202 | 4.3 | 7.8 | 0.00 | 0.02 | 0.01 | 44 | 996.1 |
| 20260503174923 | 62 | 209 | 4.3 | 7.8 | 0.00 | 0.02 | 0.01 | 46 | 996.0 |
| 20260503174853 | 62 | 231 | 3.5 | 7.8 | 0.00 | 0.02 | 0.01 | 45 | 996.0 |
| 20260503174844 | 62 | 210 | 4.3 | 7.8 | 0.00 | 0.02 | 0.01 | 47 | 996.0 |
| 20260503174626 | 61 | 247 | 3.5 | 7.8 | 0.00 | 0.02 | 0.01 | 44 | 996.0 |
| 20260503174621 | 61 | 207 | 3.5 | 7.8 | 0.00 | 0.02 | 0.01 | 43 | 996.1 |
| 20260503174616 | 61 | 30 | 3.5 | 7.8 | 0.00 | 0.02 | 0.01 | 40 | 996.2 |
| 20260503174557 | 61 | 266 | 3.5 | 7.8 | 0.00 | 0.02 | 0.01 | 43 | 996.1 |
| 20260503174221 | 61 | 66 | 3.5 | 7.8 | 0.00 | 0.02 | 0.01 | 41 | 996.1 |
| 20260503174150 | 61 | 349 | 3.5 | 7.8 | 0.00 | 0.02 | 0.01 | 44 | 996.1 |
| 20260503174142 | 61 | 40 | 3.5 | 7.8 | 0.00 | 0.02 | 0.01 | 44 | 996.1 |
| 20260503173923 | 61 | 123 | 3.5 | 7.8 | 0.00 | 0.02 | 0.01 | 41 | 996.1 |
| 20260503173822 | 61 | 88 | 3.5 | 7.8 | 0.00 | 0.02 | 0.01 | 39 | 996.2 |
| 20260503173721 | 61 | 133 | 3.5 | 7.8 | 0.00 | 0.02 | 0.01 | 41 | 996.1 |
| 20260503173621 | 61 | 78 | 3.5 | 7.8 | 0.00 | 0.02 | 0.01 | 42 | 996.2 |
| 20260503173522 | 61 | 82 | 3.5 | 7.8 | 0.00 | 0.02 | 0.01 | 40 | 996.2 |
| 20260503173422 | 61 | 66 | 3.5 | 7.8 | 0.00 | 0.02 | 0.01 | 43 | 996.2 |
| 20260503173321 | 61 | 56 | 3.5 | 7.8 | 0.00 | 0.02 | 0.01 | 40 | 996.2 |
| 20260503173220 | 61 | 36 | 3.5 | 7.8 | 0.00 | 0.02 | 0.01 | 40 | 996.2 |
| 20260503173120 | 61 | 65 | 3.5 | 7.8 | 0.00 | 0.02 | 0.01 | 39 | 996.3 |
| 20260503173055 | 61 | 52 | 3.5 | 7.8 | 0.00 | 0.02 | 0.01 | 39 | 996.3 |
| 20260503173044 | 61 | 31 | 3.5 | 7.8 | 0.00 | 0.02 | 0.01 | 39 | 996.2 |
| 20260503172918 | 61 | 40 | 2.6 | 7.0 | 0.00 | 0.02 | 0.01 | 43 | 996.3 |
| 20260503172900 | 61 | 355 | 2.6 | 7.8 | 0.00 | 0.02 | 0.01 | 39 | 996.3 |
| 20260503172739 | 61 | 22 | 2.6 | 7.0 | 0.00 | 0.02 | 0.01 | 43 | 996.3 |
| 20260503172519 | 61 | 0 | 2.6 | 7.0 | 0.00 | 0.02 | 0.01 | 43 | 996.4 |
| 20260503172420 | 61 | 44 | 2.6 | 7.0 | 0.00 | 0.02 | 0.01 | 42 | 996.4 |
| 20260503172319 | 61 | 32 | 2.6 | 7.0 | 0.00 | 0.02 | 0.01 | 43 | 996.4 |
| 20260503172219 | 62 | 88 | 2.6 | 7.0 | 0.00 | 0.02 | 0.01 | 43 | 996.5 |
| 20260503172133 | 60 | 197 | 2.6 | 6.1 | 0.00 | 0.02 | 0.01 | 44 | 996.5 |
| 20260503172122 | 62 | 73 | 2.6 | 6.1 | 0.00 | 0.02 | 0.01 | 42 | 996.5 |
| 20260503172102 | 61 | 62 | 2.6 | 6.1 | 0.00 | 0.02 | 0.01 | 46 | 996.5 |
| 20260503171947 | 60 | 221 | 2.6 | 6.1 | 0.00 | 0.02 | 0.01 | 42 | 996.5 |
| 20260503171943 | 61 | 212 | 3.5 | 6.1 | 0.00 | 0.02 | 0.01 | 44 | 996.4 |
| 20260503171931 | 61 | 159 | 2.6 | 6.1 | 0.00 | 0.02 | 0.01 | 43 | 996.4 |
| 20260503171915 | 61 | 212 | 3.5 | 6.1 | 0.00 | 0.02 | 0.01 | 46 | 996.5 |
| 20260503171635 | 61 | 212 | 3.5 | 6.1 | 0.00 | 0.02 | 0.01 | 42 | 996.5 |
| 20260503171615 | 61 | 200 | 2.6 | 6.1 | 0.00 | 0.02 | 0.01 | 42 | 996.5 |
| 20260503171452 | 60 | 227 | 2.6 | 6.1 | 0.00 | 0.02 | 0.01 | 44 | 996.5 |
| 20260503171116 | 60 | 237 | 2.6 | 7.8 | 0.00 | 0.02 | 0.01 | 44 | 996.6 |
| 20260503171016 | 60 | 223 | 2.6 | 7.8 | 0.00 | 0.02 | 0.01 | 45 | 996.6 |
| 20260503170918 | 60 | 202 | 2.6 | 7.8 | 0.00 | 0.02 | 0.01 | 42 | 996.5 |
| 20260503170816 | 60 | 182 | 2.6 | 7.8 | 0.00 | 0.02 | 0.01 | 41 | 996.6 |
| 20260503170715 | 60 | 209 | 2.6 | 7.8 | 0.00 | 0.02 | 0.01 | 42 | 996.6 |
| 20260503170615 | 60 | 0 | 2.6 | 7.8 | 0.00 | 0.02 | 0.01 | 40 | 996.7 |
| 20260503170515 | 60 | 0 | 2.6 | 7.8 | 0.00 | 0.02 | 0.01 | 42 | 996.7 |
| 20260503170414 | 60 | 0 | 3.5 | 7.8 | 0.00 | 0.02 | 0.01 | 43 | 996.7 |
| 20260503170344 | 60 | 0 | 3.5 | 8.7 | 0.00 | 0.02 | 0.01 | 42 | 996.7 |
| 20260503170335 | 60 | 0 | 3.5 | 7.8 | 0.00 | 0.02 | 0.01 | 42 | 996.6 |
| 20260503170115 | 60 | 23 | 3.5 | 8.7 | 0.00 | 0.02 | 0.01 | 44 | 996.7 |
| 20260503160131 | 59 | 227 | 3.5 | 7.8 | 0.00 | 0.02 | 0.01 | 49 | 997.4 |
| 20260503150802 | 54 | 284 | 0.9 | 4.3 | 0.00 | 0.02 | 0.01 | 76 | 997.7 |
| 20260503150705 | 53 | 221 | 0.9 | 4.3 | 0.00 | 0.02 | 0.01 | 78 | 997.6 |
| 20260503150604 | 53 | 221 | 0.9 | 4.3 | 0.00 | 0.02 | 0.01 | 77 | 997.6 |
| 20260503150504 | 53 | 221 | 0.9 | 4.3 | 0.00 | 0.02 | 0.01 | 79 | 997.6 |
| 20260503150355 | 53 | 241 | 1.7 | 4.3 | 0.00 | 0.02 | 0.01 | 81 | 997.6 |
| 20260503150253 | 52 | 163 | 1.7 | 4.3 | 0.00 | 0.02 | 0.01 | 84 | 997.6 |
| 20260503150154 | 52 | 204 | 0.9 | 4.3 | 0.00 | 0.02 | 0.01 | 87 | 997.6 |
| 20260503140223 | 46 | 283 | 1.7 | 5.2 | 0.00 | 0.02 | 0.01 | 93 | 997.5 |
| 20260503140119 | 46 | 283 | 2.6 | 5.2 | 0.00 | 0.02 | 0.01 | 93 | 997.5 |
| 20260503131142 | 43 | 200 | 2.6 | 5.2 | 0.00 | 0.02 | 0.01 | 93 | 997.4 |
| 20260503131039 | 43 | 200 | 2.6 | 5.2 | 0.00 | 0.02 | 0.01 | 93 | 997.5 |
| 20260503130939 | 43 | 200 | 1.7 | 5.2 | 0.00 | 0.02 | 0.01 | 93 | 997.4 |
| 20260503130840 | 43 | 169 | 1.7 | 5.2 | 0.00 | 0.02 | 0.01 | 93 | 997.5 |
| 20260503130734 | 42 | 169 | 1.7 | 5.2 | 0.00 | 0.02 | 0.01 | 93 | 997.5 |
| 20260503130705 | 42 | 158 | 2.6 | 5.2 | 0.00 | 0.02 | 0.01 | 93 | 997.5 |
| 20260503130656 | 42 | 169 | 2.6 | 5.2 | 0.00 | 0.02 | 0.01 | 93 | 997.5 |
| 20260503130437 | 42 | 158 | 1.7 | 5.2 | 0.00 | 0.02 | 0.01 | 93 | 997.6 |
| 20260503130333 | 42 | 150 | 1.7 | 4.3 | 0.00 | 0.02 | 0.01 | 93 | 997.6 |
| 20260503130255 | 42 | 227 | 1.7 | 3.5 | 0.00 | 0.02 | 0.01 | 93 | 997.6 |
| 20260503130246 | 42 | 177 | 1.7 | 3.5 | 0.00 | 0.02 | 0.01 | 93 | 997.5 |
| 20260503120158 | 40 | 203 | 0.9 | 2.6 | 0.00 | 0.02 | 0.01 | 93 | 997.3 |
| 20260503110824 | 38 | 32 | 0.0 | 0.0 | 0.00 | 0.02 | 0.01 | 92 | 996.5 |
| 20260503110603 | 38 | 32 | 0.0 | 0.0 | 0.00 | 0.02 | 0.01 | 92 | 996.5 |
| 20260503110530 | 38 | 32 | 0.0 | 0.0 | 0.00 | 0.02 | 0.01 | 92 | 996.6 |
| 20260503110521 | 38 | 32 | 0.0 | 0.0 | 0.00 | 0.02 | 0.01 | 92 | 996.6 |
| 20260503110302 | 38 | 32 | 0.0 | 0.0 | 0.00 | 0.02 | 0.01 | 92 | 996.6 |
| 20260503110200 | 38 | 32 | 0.0 | 0.0 | 0.00 | 0.02 | 0.01 | 92 | 996.5 |
| 20260503100252 | 38 | 32 | 0.9 | 1.7 | 0.00 | 0.02 | 0.01 | 92 | 996.1 |
| 20260503100202 | 38 | 32 | 0.9 | 2.6 | 0.00 | 0.02 | 0.01 | 92 | 996.1 |
| 20260503090459 | 38 | 32 | 0.0 | 0.0 | 0.01 | 0.02 | 0.01 | 91 | 995.8 |
| 20260503090402 | 38 | 32 | 0.0 | 0.0 | 0.01 | 0.02 | 0.01 | 91 | 995.7 |
| 20260503090259 | 38 | 32 | 0.0 | 0.0 | 0.01 | 0.02 | 0.01 | 91 | 995.8 |
| 20260503090157 | 38 | 32 | 0.0 | 0.0 | 0.01 | 0.02 | 0.01 | 91 | 995.8 |
| 20260503081545 | 39 | 32 | 0.0 | 0.0 | 0.00 | 0.01 | 0.00 | 91 | 995.8 |
| 20260503081507 | 39 | 32 | 0.0 | 0.0 | 0.00 | 0.01 | 0.00 | 91 | 995.7 |
| 20260503081459 | 39 | 32 | 0.0 | 0.0 | 0.00 | 0.01 | 0.00 | 91 | 995.8 |
| 20260503081240 | 39 | 32 | 0.0 | 0.0 | 0.00 | 0.01 | 0.00 | 91 | 995.7 |
| 20260503081141 | 39 | 32 | 0.0 | 0.0 | 0.00 | 0.01 | 0.00 | 91 | 995.7 |
| 20260503081042 | 39 | 32 | 0.0 | 0.0 | 0.00 | 0.01 | 0.00 | 91 | 995.8 |
| 20260503081035 | 39 | 32 | 0.0 | 0.0 | 0.00 | 0.01 | 0.00 | 91 | 995.7 |
| 20260503081018 | 39 | 32 | 0.0 | 0.0 | 0.00 | 0.01 | 0.00 | 91 | 995.7 |
| 20260503080859 | 39 | 32 | 0.0 | 0.0 | 0.00 | 0.01 | 0.00 | 91 | 995.7 |
| 20260503080637 | 39 | 32 | 0.0 | 0.0 | 0.00 | 0.01 | 0.00 | 91 | 995.7 |
| 20260503080535 | 39 | 32 | 0.0 | 0.0 | 0.00 | 0.01 | 0.00 | 91 | 995.7 |
| 20260503080435 | 39 | 32 | 0.0 | 0.0 | 0.00 | 0.01 | 0.00 | 91 | 995.7 |
| 20260503080333 | 39 | 32 | 0.0 | 0.0 | 0.00 | 0.01 | 0.00 | 91 | 995.7 |
| 20260503080233 | 39 | 32 | 0.0 | 0.0 | 0.00 | 0.01 | 0.00 | 91 | 995.8 |
| 20260503080131 | 39 | 32 | 0.0 | 0.0 | 0.00 | 0.01 | 0.00 | 91 | 995.7 |
| 20260503072847 | 39 | 32 | 0.0 | 0.0 | 0.00 | 0.01 | 0.00 | 90 | 995.7 |
| 20260503072747 | 39 | 32 | 0.0 | 0.0 | 0.00 | 0.01 | 0.00 | 90 | 995.7 |
| 20260503072643 | 39 | 32 | 0.0 | 0.0 | 0.00 | 0.01 | 0.00 | 90 | 995.7 |
| 20260503072543 | 39 | 32 | 0.0 | 0.0 | 0.00 | 0.01 | 0.00 | 90 | 995.8 |
| 20260503072445 | 39 | 32 | 0.0 | 0.0 | 0.00 | 0.01 | 0.00 | 90 | 995.7 |
| 20260503072343 | 39 | 32 | 0.0 | 0.0 | 0.00 | 0.01 | 0.00 | 90 | 995.7 |
| 20260503072241 | 39 | 32 | 0.0 | 0.0 | 0.00 | 0.01 | 0.00 | 90 | 995.7 |
| 20260503072236 | 39 | 32 | 0.0 | 0.0 | 0.00 | 0.01 | 0.00 | 90 | 995.8 |
| 20260503072219 | 39 | 32 | 0.0 | 0.0 | 0.00 | 0.01 | 0.00 | 90 | 995.6 |
| 20260503072058 | 39 | 32 | 0.0 | 0.0 | 0.00 | 0.01 | 0.00 | 90 | 995.7 |
| 20260503071838 | 39 | 32 | 0.0 | 0.0 | 0.00 | 0.01 | 0.00 | 90 | 995.7 |
| 20260503071734 | 39 | 32 | 0.0 | 0.0 | 0.00 | 0.01 | 0.00 | 90 | 995.7 |
| 20260503071636 | 39 | 32 | 0.0 | 0.0 | 0.00 | 0.01 | 0.00 | 90 | 995.7 |
| 20260503071533 | 39 | 32 | 0.0 | 0.0 | 0.00 | 0.01 | 0.00 | 90 | 995.6 |
| 20260503071458 | 39 | 32 | 0.0 | 0.0 | 0.00 | 0.01 | 0.00 | 90 | 995.7 |
| 20260503071450 | 39 | 32 | 0.0 | 0.0 | 0.00 | 0.01 | 0.00 | 90 | 995.7 |
| 20260503071229 | 39 | 32 | 0.0 | 0.0 | 0.00 | 0.01 | 0.00 | 90 | 995.7 |
| 20260503071126 | 39 | 32 | 0.0 | 0.0 | 0.00 | 0.01 | 0.00 | 90 | 995.6 |
| 20260503071026 | 39 | 32 | 0.0 | 0.0 | 0.00 | 0.01 | 0.00 | 90 | 995.7 |
| 20260503070925 | 39 | 32 | 0.0 | 0.0 | 0.00 | 0.01 | 0.00 | 90 | 995.6 |
| 20260503070915 | 39 | 32 | 0.0 | 0.0 | 0.00 | 0.01 | 0.00 | 90 | 995.5 |
| 20260503070910 | 39 | 32 | 0.0 | 0.0 | 0.00 | 0.01 | 0.00 | 90 | 995.5 |
| 20260503070855 | 39 | 32 | 0.0 | 0.0 | 0.00 | 0.01 | 0.00 | 90 | 995.5 |
| 20260503070520 | 39 | 32 | 0.0 | 0.0 | 0.00 | 0.01 | 0.00 | 89 | 995.5 |
| 20260503070419 | 39 | 32 | 0.0 | 0.0 | 0.00 | 0.01 | 0.00 | 90 | 995.5 |
| 20260503070319 | 39 | 32 | 0.0 | 0.0 | 0.00 | 0.01 | 0.00 | 89 | 995.5 |
| 20260503070217 | 39 | 32 | 0.0 | 0.0 | 0.00 | 0.01 | 0.00 | 90 | 995.5 |
| 20260503070119 | 39 | 32 | 0.0 | 0.0 | 0.00 | 0.01 | 0.00 | 90 | 995.5 |
| 20260503060316 | 40 | 32 | 0.0 | 0.0 | 0.00 | 0.01 | 0.00 | 89 | 995.5 |
| 20260503060217 | 40 | 32 | 0.0 | 0.0 | 0.00 | 0.01 | 0.00 | 89 | 995.5 |
| 20260503060116 | 40 | 32 | 0.0 | 0.0 | 0.00 | 0.01 | 0.00 | 89 | 995.5 |
| 20260503055105 | 40 | 32 | 0.0 | 0.0 | 0.00 | 0.01 | 0.00 | 89 | 995.4 |
| 20260503055005 | 40 | 32 | 0.0 | 0.0 | 0.00 | 0.01 | 0.00 | 89 | 995.4 |
| 20260503054930 | 41 | 32 | 0.0 | 0.0 | 0.00 | 0.01 | 0.00 | 89 | 995.4 |
| 20260503054921 | 41 | 32 | 0.0 | 0.0 | 0.00 | 0.01 | 0.00 | 89 | 995.4 |
| 20260503054659 | 41 | 32 | 0.0 | 0.0 | 0.00 | 0.01 | 0.00 | 89 | 995.4 |
| 20260503054625 | 41 | 32 | 0.0 | 0.0 | 0.00 | 0.01 | 0.00 | 89 | 995.3 |
| 20260503054616 | 41 | 32 | 0.0 | 0.0 | 0.00 | 0.01 | 0.00 | 89 | 995.3 |
| 20260503054359 | 41 | 32 | 0.0 | 0.0 | 0.00 | 0.01 | 0.00 | 89 | 995.4 |
| 20260503054255 | 41 | 32 | 0.0 | 0.0 | 0.00 | 0.01 | 0.00 | 89 | 995.3 |
| 20260503054247 | 41 | 32 | 0.0 | 0.0 | 0.00 | 0.01 | 0.00 | 89 | 995.5 |
| 20260503054231 | 41 | 32 | 0.0 | 0.0 | 0.00 | 0.01 | 0.00 | 89 | 995.4 |
| 20260503054111 | 41 | 32 | 0.0 | 0.0 | 0.00 | 0.01 | 0.00 | 89 | 995.4 |
| 20260503053851 | 41 | 32 | 0.0 | 0.0 | 0.00 | 0.01 | 0.00 | 89 | 995.5 |
| 20260503053752 | 41 | 32 | 0.0 | 0.0 | 0.00 | 0.01 | 0.00 | 89 | 995.5 |
| 20260503053720 | 41 | 32 | 0.0 | 0.0 | 0.00 | 0.01 | 0.00 | 89 | 995.4 |
| 20260503053711 | 41 | 32 | 0.0 | 0.0 | 0.00 | 0.01 | 0.00 | 89 | 995.5 |
| 20260503053451 | 41 | 32 | 0.0 | 0.0 | 0.00 | 0.01 | 0.00 | 89 | 995.4 |
| 20260503053349 | 41 | 32 | 0.0 | 0.0 | 0.00 | 0.01 | 0.00 | 89 | 995.4 |
| 20260503053249 | 41 | 32 | 0.0 | 0.0 | 0.00 | 0.01 | 0.00 | 89 | 995.4 |
| 20260503053146 | 41 | 32 | 0.0 | 0.0 | 0.00 | 0.01 | 0.00 | 89 | 995.5 |
| 20260503053046 | 41 | 32 | 0.0 | 0.0 | 0.00 | 0.01 | 0.00 | 89 | 995.4 |
| 20260503052944 | 41 | 32 | 0.0 | 0.0 | 0.00 | 0.01 | 0.00 | 89 | 995.4 |
| 20260503052845 | 41 | 32 | 0.0 | 0.0 | 0.00 | 0.01 | 0.00 | 89 | 995.3 |
| 20260503052810 | 41 | 32 | 0.0 | 0.0 | 0.00 | 0.01 | 0.00 | 90 | 995.3 |
| 20260503052801 | 41 | 32 | 0.0 | 0.0 | 0.00 | 0.01 | 0.00 | 90 | 995.3 |
| 20260503052537 | 41 | 32 | 0.0 | 0.0 | 0.00 | 0.01 | 0.00 | 90 | 995.3 |
| 20260503052438 | 41 | 32 | 0.0 | 0.0 | 0.00 | 0.01 | 0.00 | 90 | 995.3 |
| 20260503052405 | 42 | 32 | 0.0 | 0.0 | 0.00 | 0.01 | 0.00 | 89 | 995.3 |
| 20260503052355 | 41 | 32 | 0.0 | 0.0 | 0.00 | 0.01 | 0.00 | 89 | 995.3 |
| 20260503052200 | 41 | 32 | 0.0 | 0.0 | 0.00 | 0.01 | 0.00 | 89 | 995.3 |
| 20260503052153 | 41 | 32 | 0.0 | 0.0 | 0.00 | 0.01 | 0.00 | 89 | 995.3 |
| 20260503051932 | 41 | 32 | 0.0 | 0.0 | 0.00 | 0.01 | 0.00 | 89 | 995.2 |
| 20260503051832 | 41 | 32 | 0.0 | 0.0 | 0.00 | 0.01 | 0.00 | 89 | 995.3 |
| 20260503051729 | 41 | 32 | 0.0 | 0.0 | 0.00 | 0.01 | 0.00 | 89 | 995.2 |
| 20260503051630 | 41 | 32 | 0.0 | 0.0 | 0.00 | 0.01 | 0.00 | 89 | 995.3 |
| 20260503051529 | 41 | 32 | 0.0 | 0.0 | 0.00 | 0.01 | 0.00 | 89 | 995.2 |
| 20260503051425 | 41 | 32 | 0.0 | 0.0 | 0.00 | 0.01 | 0.00 | 89 | 995.3 |
| 20260503051326 | 41 | 32 | 0.0 | 0.0 | 0.00 | 0.01 | 0.00 | 89 | 995.3 |
| 20260503051252 | 41 | 32 | 0.0 | 0.0 | 0.00 | 0.01 | 0.00 | 89 | 995.3 |
| 20260503051245 | 41 | 32 | 0.0 | 0.0 | 0.00 | 0.01 | 0.00 | 89 | 995.4 |
| 20260503051023 | 41 | 32 | 0.0 | 0.0 | 0.00 | 0.01 | 0.00 | 89 | 995.3 |
| 20260503050919 | 41 | 32 | 0.0 | 0.0 | 0.00 | 0.01 | 0.00 | 89 | 995.3 |
| 20260503050850 | 41 | 32 | 0.0 | 0.0 | 0.00 | 0.01 | 0.00 | 88 | 995.3 |
| 20260503050839 | 41 | 32 | 0.0 | 0.0 | 0.00 | 0.01 | 0.00 | 88 | 995.3 |
| 20260503050617 | 41 | 32 | 0.0 | 0.0 | 0.00 | 0.01 | 0.00 | 88 | 995.3 |
| 20260503050544 | 42 | 32 | 0.0 | 0.0 | 0.00 | 0.01 | 0.00 | 88 | 995.2 |
| 20260503050534 | 42 | 32 | 0.0 | 0.0 | 0.00 | 0.01 | 0.00 | 88 | 995.3 |
| 20260503050314 | 42 | 32 | 0.0 | 0.0 | 0.00 | 0.01 | 0.00 | 88 | 995.3 |
| 20260503050212 | 42 | 32 | 0.0 | 0.0 | 0.00 | 0.01 | 0.00 | 88 | 995.2 |
| 20260503050112 | 42 | 32 | 0.0 | 0.0 | 0.00 | 0.01 | 0.00 | 88 | 995.2 |
| 20260503050011 | 42 | 32 | 0.0 | 0.0 | 0.00 | 0.01 | 0.00 | 88 | 995.2 |
| 20260503050005 | 42 | 32 | 0.0 | 0.0 | 0.00 | 0.01 | 0.01 | 88 | 995.2 |
| 20260503050000 | 42 | 32 | 0.0 | 0.0 | 0.00 | 0.01 | 0.01 | 88 | 995.2 |
| 20260503045944 | 42 | 32 | 0.0 | 0.0 | 0.00 | 0.01 | 0.01 | 88 | 995.2 |
| 20260503045607 | 42 | 32 | 0.0 | 0.0 | 0.00 | 0.01 | 0.01 | 88 | 995.2 |
| 20260503045506 | 42 | 32 | 0.0 | 0.0 | 0.00 | 0.01 | 0.01 | 88 | 995.2 |
| 20260503045431 | 42 | 32 | 0.0 | 0.0 | 0.00 | 0.01 | 0.01 | 88 | 995.2 |
| 20260503045422 | 42 | 32 | 0.0 | 0.0 | 0.00 | 0.01 | 0.01 | 88 | 995.3 |
| 20260503045231 | 42 | 32 | 0.0 | 0.0 | 0.00 | 0.01 | 0.01 | 88 | 995.2 |
| 20260503045222 | 42 | 32 | 0.0 | 0.0 | 0.00 | 0.01 | 0.01 | 88 | 995.2 |
| 20260503044958 | 42 | 32 | 0.0 | 0.0 | 0.00 | 0.01 | 0.01 | 88 | 995.2 |
| 20260503044857 | 42 | 32 | 0.0 | 0.0 | 0.00 | 0.01 | 0.01 | 88 | 995.2 |
| 20260503044849 | 42 | 32 | 0.0 | 0.0 | 0.00 | 0.01 | 0.01 | 88 | 995.2 |
| 20260503044832 | 42 | 32 | 0.0 | 0.0 | 0.00 | 0.01 | 0.01 | 88 | 995.2 |
| 20260503044714 | 42 | 32 | 0.0 | 0.0 | 0.00 | 0.01 | 0.01 | 88 | 995.1 |
| 20260503044454 | 42 | 32 | 0.0 | 0.0 | 0.00 | 0.01 | 0.01 | 88 | 995.2 |
| 20260503044421 | 42 | 32 | 0.0 | 0.0 | 0.00 | 0.01 | 0.01 | 88 | 995.2 |
| 20260503044412 | 42 | 32 | 0.0 | 0.0 | 0.00 | 0.01 | 0.01 | 88 | 995.2 |
| 20260503044351 | 42 | 32 | 0.0 | 0.0 | 0.00 | 0.01 | 0.01 | 88 | 995.2 |
| 20260503044227 | 42 | 32 | 0.0 | 0.0 | 0.00 | 0.01 | 0.01 | 88 | 995.2 |
| 20260503044106 | 42 | 32 | 0.0 | 0.0 | 0.00 | 0.01 | 0.01 | 88 | 995.2 |
| 20260503043935 | 42 | 32 | 0.0 | 0.0 | 0.00 | 0.01 | 0.01 | 88 | 995.2 |
| 20260503043918 | 42 | 32 | 0.0 | 0.0 | 0.00 | 0.01 | 0.01 | 88 | 995.1 |
| 20260503043758 | 42 | 32 | 0.0 | 0.0 | 0.00 | 0.01 | 0.01 | 88 | 995.2 |
| 20260503043539 | 42 | 32 | 0.0 | 0.0 | 0.00 | 0.01 | 0.01 | 88 | 995.3 |
| 20260503043503 | 42 | 32 | 0.0 | 0.0 | 0.00 | 0.01 | 0.01 | 88 | 995.2 |
| 20260503043454 | 42 | 32 | 0.0 | 0.0 | 0.00 | 0.01 | 0.01 | 88 | 995.2 |
| 20260503043231 | 42 | 32 | 0.0 | 0.0 | 0.00 | 0.01 | 0.01 | 88 | 995.2 |
| 20260503043156 | 42 | 32 | 0.0 | 0.0 | 0.00 | 0.01 | 0.01 | 88 | 995.1 |
| 20260503043148 | 42 | 32 | 0.0 | 0.0 | 0.00 | 0.01 | 0.01 | 88 | 995.1 |
| 20260503042928 | 42 | 32 | 0.0 | 0.0 | 0.00 | 0.01 | 0.01 | 88 | 995.1 |
| 20260503042830 | 43 | 32 | 0.0 | 0.0 | 0.00 | 0.01 | 0.01 | 88 | 995.1 |
| 20260503042816 | 43 | 32 | 0.0 | 0.0 | 0.00 | 0.01 | 0.01 | 88 | 995.1 |
| 20260503042811 | 43 | 32 | 0.0 | 0.0 | 0.00 | 0.01 | 0.01 | 88 | 995.0 |
| 20260503042755 | 42 | 32 | 0.0 | 0.0 | 0.00 | 0.01 | 0.01 | 88 | 995.1 |
| 20260503042451 | 43 | 32 | 0.0 | 0.0 | 0.00 | 0.01 | 0.01 | 88 | 995.1 |
| 20260503042442 | 43 | 32 | 0.0 | 0.0 | 0.00 | 0.01 | 0.01 | 88 | 995.0 |
| 20260503042210 | 43 | 32 | 0.0 | 0.0 | 0.00 | 0.01 | 0.01 | 88 | 995.0 |